GFSCGP_500_spd_054.txt.gz
Wind_Speed
38 37 31 30 32 34 33 32 31 30 34 34 34 36 38 37 32 29 30 29 27 26 27 27 28 29 29 27 27 27 27 28 28 28 27 28 29 30 30 30 31 31 29 30
41 37 34 35 35 36 36 35 33 33 35 42 40 40 38 37 28 27 26 24 24 26 26 28 31 32 33 32 30 30 31 31 31 30 30 29 29 30 32 33 33 33 33 30
44 41 38 39 37 37 37 37 36 38 40 48 48 47 38 30 28 27 24 25 25 26 29 33 34 35 36 36 35 32 31 33 33 32 32 31 31 31 32 32 33 33 33 32
47 44 41 40 40 39 40 37 40 40 46 49 49 56 39 30 27 27 25 29 29 30 32 36 37 38 38 39 37 35 35 34 34 34 34 33 34 33 33 33 33 33 34 35
49 46 45 44 41 41 40 39 41 44 48 50 51 54 42 32 28 25 28 30 31 34 34 37 40 41 40 39 39 38 36 35 34 35 35 35 33 33 33 33 34 36 38 38
52 51 47 45 43 43 42 44 42 45 48 58 47 51 37 32 28 25 26 31 35 37 37 37 40 42 40 38 38 39 39 37 36 36 36 35 33 32 32 33 35 36 36 36
53 52 51 49 46 45 45 42 45 54 58 61 52 51 35 33 28 28 26 30 32 38 37 35 34 40 41 39 40 41 40 38 37 36 35 34 33 34 33 35 36 37 38 41
58 57 53 53 51 46 44 50 52 55 50 51 53 48 35 36 33 33 32 30 35 36 37 36 33 36 39 39 38 38 38 36 35 35 35 35 37 36 38 37 38 39 42 44
60 59 58 57 58 52 48 51 44 47 51 51 45 43 41 36 34 35 32 28 29 32 37 37 37 35 34 35 35 36 36 35 35 36 37 38 38 40 40 40 42 43 45 48
56 60 61 56 54 55 54 50 50 50 53 52 50 50 45 39 37 35 34 30 30 31 33 34 35 35 34 35 35 35 35 37 39 40 40 42 43 43 44 44 46 49 51 55
55 57 58 56 54 52 52 55 52 53 54 54 52 43 47 47 45 39 33 30 25 27 29 33 35 36 38 39 37 36 38 40 41 42 43 44 44 45 46 48 51 54 56 58
46 47 54 55 54 53 51 51 55 55 57 57 53 40 46 47 42 41 38 35 34 33 33 34 36 37 38 38 39 39 40 41 43 44 44 46 47 48 49 52 55 56 57 59
46 49 49 50 51 53 53 52 52 54 53 50 53 37 47 41 42 43 41 39 41 41 36 36 39 41 41 42 42 44 46 46 46 47 48 49 51 53 55 56 58 59 61 62
45 46 51 51 50 51 50 46 47 48 52 54 50 47 46 50 46 43 40 44 41 38 36 37 36 40 44 46 47 47 47 48 51 52 52 53 53 55 59 61 62 63 63 64
47 48 45 46 47 49 53 54 53 57 52 57 43 48 42 49 50 45 45 44 43 42 40 36 36 38 40 44 48 51 54 55 56 56 58 57 57 59 62 62 62 62 64 66
53 52 51 53 48 51 57 56 58 59 58 59 54 52 49 48 48 48 46 47 48 48 48 46 43 43 42 44 47 50 53 56 58 59 60 61 60 61 62 62 63 65 65 66
52 52 56 59 53 53 56 52 58 58 56 56 58 50 49 50 48 47 46 48 50 49 50 46 44 46 47 46 48 50 53 56 58 60 61 62 64 60 62 63 64 64 65 69
55 55 56 57 56 63 58 49 49 51 50 52 52 43 48 51 49 48 48 49 46 44 46 50 51 50 50 50 51 54 56 57 60 62 63 63 60 60 59 61 62 65 68 69
64 63 59 57 62 65 63 59 56 57 55 51 57 52 52 54 55 50 52 51 52 53 54 54 55 57 58 59 59 58 59 61 61 60 62 61 60 59 61 61 65 68 67 66
65 61 60 61 65 62 60 58 58 57 62 54 56 55 59 61 64 54 58 61 59 58 57 58 60 61 62 61 60 60 60 61 62 63 62 61 61 61 61 62 68 63 65 67
64 66 68 62 60 64 52 52 56 61 59 57 58 57 56 58 60 61 63 63 62 61 60 60 59 58 58 59 59 57 57 56 58 60 60 59 61 61 64 64 64 65 69 72
56 60 59 63 62 60 51 53 56 57 60 60 61 60 58 57 57 58 60 60 59 57 56 57 56 55 55 55 55 55 54 55 57 59 61 61 62 64 67 67 68 70 73 77
59 52 53 59 62 57 51 53 60 59 59 60 61 60 59 58 57 55 53 53 54 54 55 56 56 56 55 55 57 56 56 57 58 59 60 63 65 65 67 69 73 75 76 77
72 63 58 57 56 55 56 56 55 54 55 56 56 56 54 53 52 51 51 52 52 51 51 52 53 54 55 55 56 57 58 60 61 62 64 65 66 67 70 72 73 75 77 77
62 64 71 61 54 54 54 49 49 47 47 49 50 51 51 52 52 53 53 52 52 52 52 50 49 51 52 54 55 57 59 62 63 65 67 68 69 70 70 71 73 73 73 73
59 55 56 62 65 62 53 41 42 45 49 50 51 51 50 50 50 50 50 50 49 49 49 49 50 51 54 57 60 62 63 64 65 66 67 67 68 69 70 70 70 72 73 74

GFSCGP_500_spd_057.txt.gz
Wind_Speed
39 38 32 31 33 32 32 32 31 29 33 36 33 30 28 34 31 33 35 32 28 27 28 26 27 28 29 29 30 30 28 27 27 27 27 27 27 27 27 28 29 28 29 31
43 40 35 36 35 35 34 34 33 33 36 42 36 36 33 35 36 35 33 29 25 26 26 26 28 30 31 32 32 33 33 32 31 30 30 30 30 30 30 29 29 30 31 32
46 43 39 40 38 37 36 37 37 38 39 42 42 46 41 37 33 33 28 27 28 28 28 28 29 31 33 33 35 37 37 36 35 33 31 32 32 33 34 33 32 32 33 34
50 46 43 41 40 40 40 39 40 41 43 44 42 55 48 39 35 32 29 30 31 32 30 32 32 33 35 37 38 38 38 38 38 37 36 35 35 36 37 36 35 34 35 35
50 49 48 46 42 42 43 41 41 43 44 49 47 56 51 41 31 24 28 32 33 34 33 33 34 36 38 39 41 41 38 39 40 40 40 38 38 39 38 38 37 37 36 37
55 53 51 48 45 43 45 44 44 44 47 57 50 57 51 43 35 24 26 31 32 35 35 35 40 41 42 43 43 43 41 39 40 42 42 40 40 40 39 39 39 38 37 37
56 55 52 49 49 47 46 45 46 48 51 58 56 63 50 39 31 24 25 27 31 32 36 38 38 40 44 44 41 40 42 42 43 43 43 43 42 40 39 39 39 38 38 39
59 59 55 52 50 48 47 48 49 53 58 61 62 55 40 32 27 25 29 25 27 34 38 39 41 40 41 43 40 39 41 44 44 45 44 44 42 41 41 41 41 42 41 43
59 61 59 55 53 51 53 54 52 51 60 64 54 45 43 39 34 35 26 27 28 31 38 39 41 41 40 40 41 41 40 41 42 42 42 41 41 42 43 45 46 45 45 45
65 67 65 64 63 62 59 58 57 58 60 63 54 48 41 39 39 37 34 35 31 30 33 35 37 38 39 39 40 40 40 39 40 41 42 42 44 46 47 47 48 47 48 49
61 69 71 69 71 66 61 61 63 63 61 60 57 45 46 46 46 42 37 34 29 29 31 36 37 37 37 39 41 40 39 39 41 43 44 46 47 48 48 49 49 50 50 52
52 56 64 66 65 67 66 64 64 63 60 57 56 46 46 46 44 38 36 32 31 34 35 37 39 40 39 40 40 42 42 42 43 45 47 49 50 49 49 51 52 53 55 56
53 57 61 64 66 64 64 61 60 61 62 57 57 43 47 48 46 43 43 42 41 38 39 35 37 40 43 43 43 44 46 46 47 49 51 51 51 51 52 54 56 58 58 60
48 50 56 62 61 60 58 55 53 54 57 56 56 49 47 49 46 46 45 44 43 42 43 40 40 42 43 45 44 44 46 48 50 51 52 53 55 55 56 58 60 61 63 64
53 53 46 50 51 53 56 55 55 57 55 59 49 52 41 44 50 49 45 42 45 47 50 48 48 48 46 44 44 47 49 51 53 55 58 59 60 60 62 65 66 65 66 68
57 53 51 52 54 54 55 53 57 60 59 60 55 56 46 47 46 48 49 52 51 52 53 54 53 49 48 50 50 48 49 50 52 53 56 59 61 63 65 66 67 70 71 68
61 57 56 60 52 51 57 58 56 55 54 54 58 53 49 52 54 52 50 55 58 55 51 51 52 50 47 48 50 51 50 53 55 56 56 58 59 60 63 66 69 71 70 65
65 62 60 61 60 66 56 51 53 57 57 56 58 55 53 56 52 57 56 59 54 49 51 53 52 50 48 48 47 49 51 53 54 55 56 58 61 63 64 66 69 67 62 59
63 65 65 65 69 66 63 59 59 61 59 55 57 55 53 54 57 53 53 53 52 51 53 52 52 51 51 51 51 54 55 55 56 56 57 58 60 62 63 63 62 64 64 60
70 70 67 62 71 74 64 57 57 61 63 54 61 60 58 58 64 59 58 59 61 59 56 56 55 55 57 58 58 58 58 59 58 59 59 60 62 62 61 62 62 64 64 63
69 70 69 63 67 70 67 60 64 65 55 55 57 54 59 66 65 64 64 62 62 62 63 63 62 62 60 60 61 61 60 59 59 58 57 57 58 62 63 65 69 67 65 65
64 63 64 62 52 58 69 68 67 67 63 56 60 61 57 60 61 61 60 61 62 62 62 60 59 59 59 57 55 54 55 57 57 56 55 57 60 61 64 65 63 63 65 65
73 67 63 63 62 52 51 54 59 61 62 64 64 62 57 56 55 57 57 56 55 56 58 60 60 58 55 53 53 54 54 54 53 54 55 56 58 60 62 64 64 64 67 71
69 68 70 67 64 57 54 44 48 58 59 60 64 65 62 60 60 60 58 55 54 52 51 51 52 52 52 52 53 53 53 53 55 57 59 60 62 64 67 69 72 75 77 78
61 62 63 65 66 66 67 65 64 57 52 52 53 55 57 58 58 58 57 55 55 52 51 51 51 51 51 52 54 54 55 56 56 57 58 60 63 66 69 72 74 76 76 76
67 68 68 65 58 58 59 56 56 59 63 63 56 45 42 43 45 48 50 51 51 51 51 50 49 49 48 48 49 50 50 52 54 56 59 63 66 69 71 72 73 73 73 73

GFSCGP_500_spd_060.txt.gz
Wind_Speed
40 39 36 31 35 34 31 31 30 29 31 34 34 31 28 32 27 24 28 31 30 30 30 28 27 28 29 30 30 30 29 29 29 29 27 27 28 28 28 27 28 29 28 28
46 44 38 39 39 37 35 34 34 33 35 40 38 38 32 32 31 28 30 31 33 32 29 29 28 29 30 30 30 31 31 31 32 32 32 32 32 30 30 31 32 32 30 31
50 48 44 43 42 40 38 37 37 39 39 41 43 45 38 33 33 31 30 32 35 35 34 32 32 30 31 30 31 32 33 34 34 35 36 36 36 34 33 33 35 35 34 34
54 50 47 44 42 43 42 41 42 42 43 42 44 55 42 38 34 34 33 35 37 38 37 36 35 33 33 35 35 34 35 36 36 37 38 38 39 39 38 38 37 37 37 37
53 51 49 48 45 45 45 44 44 45 45 46 51 53 48 43 38 35 35 33 37 38 39 37 37 39 36 36 37 36 36 36 35 40 40 40 40 42 42 41 40 40 40 41
57 56 53 50 48 47 47 47 47 46 47 51 55 54 50 45 44 37 39 36 40 44 42 39 39 40 39 39 40 40 41 41 42 42 42 41 42 43 44 43 42 43 43 43
59 57 56 53 52 50 48 47 47 49 51 52 56 60 54 46 48 46 40 31 31 37 36 38 39 40 40 41 40 40 41 42 42 39 38 42 43 45 45 45 45 46 44 44
60 61 58 56 53 52 49 47 49 53 54 54 57 63 60 49 45 47 34 28 31 35 36 35 37 39 40 42 43 43 41 41 41 40 39 42 44 46 47 47 46 46 45 46
60 61 60 56 54 51 53 54 52 52 55 60 65 61 60 53 48 46 40 32 27 31 35 37 39 39 41 44 44 42 40 38 40 42 42 42 43 45 46 47 47 46 47 47
59 62 62 60 59 58 58 57 55 57 58 61 67 67 62 60 54 42 42 39 41 32 34 38 40 41 43 42 41 41 40 39 40 40 40 41 41 42 44 45 46 48 48 49
64 66 69 67 67 65 63 63 64 63 63 64 68 67 62 61 57 55 50 46 39 33 33 35 38 42 42 43 42 41 42 42 42 42 42 42 42 44 45 46 48 51 52 52
61 67 75 73 73 71 70 70 71 71 70 67 66 61 58 60 59 51 48 40 32 33 33 31 34 39 40 41 42 42 43 43 44 45 44 46 46 46 48 50 52 53 54 56
47 55 63 70 74 79 79 72 67 67 67 71 71 62 61 60 57 54 52 50 47 42 41 42 43 43 41 42 43 43 42 42 43 46 47 48 49 49 50 52 55 56 57 57
42 47 49 59 62 63 65 63 60 58 60 71 65 54 52 54 55 55 54 55 55 50 42 46 46 44 45 44 43 44 45 44 45 47 49 50 51 53 54 56 57 57 59 61
54 57 51 45 52 55 59 61 63 65 65 65 56 58 44 51 55 59 54 52 49 43 45 48 48 47 44 46 47 48 48 47 47 48 49 51 53 55 56 58 61 63 65 66
63 61 53 57 50 53 58 59 63 66 66 66 68 66 50 51 52 52 52 51 50 51 53 54 52 51 52 53 51 51 48 47 47 47 48 51 54 56 57 59 61 64 66 68
68 67 64 64 57 59 63 59 61 61 60 60 63 59 53 56 58 53 52 54 57 59 59 55 55 55 56 56 54 49 48 49 48 49 50 52 53 54 57 61 65 67 69 68
52 51 62 65 65 71 57 53 55 58 57 57 57 52 50 52 56 56 56 58 56 56 58 60 61 61 58 58 56 54 50 47 48 47 47 50 53 57 62 66 67 65 66 68
55 51 57 64 66 70 65 57 60 64 60 53 52 49 50 50 57 56 52 53 53 53 55 57 57 56 56 54 52 53 53 51 50 51 53 54 55 57 59 63 64 66 66 69
61 57 66 65 63 58 59 57 65 62 63 57 59 54 53 55 62 58 60 61 62 61 62 61 61 59 58 60 60 59 58 57 57 58 60 62 62 61 62 63 65 64 68 72
75 58 66 67 67 71 64 60 61 69 64 65 66 61 57 60 61 60 62 65 67 70 70 71 68 66 65 64 64 63 62 63 64 64 61 60 61 61 61 61 61 63 66 64
70 76 76 72 63 59 57 66 66 60 61 63 68 66 60 60 62 57 58 63 64 66 69 71 72 69 66 64 64 63 62 61 60 60 59 58 57 57 57 55 61 62 64 63
70 69 82 71 62 55 57 54 55 60 63 62 64 63 64 66 67 67 62 60 58 61 67 71 69 66 63 64 63 60 60 59 58 57 56 56 54 52 55 58 61 64 65 65
89 81 76 72 64 64 61 57 56 60 57 57 62 65 62 61 61 63 62 61 64 62 64 65 63 60 60 60 60 58 58 57 56 56 56 54 54 55 57 58 60 61 63 65
59 57 66 82 79 71 68 66 68 67 68 66 58 50 47 45 46 46 46 50 55 58 58 58 58 55 54 54 55 56 56 57 56 55 55 55 56 57 58 59 61 64 67 69
59 44 51 51 57 64 68 71 70 67 68 72 70 65 61 59 58 57 57 55 53 45 48 49 47 48 49 49 50 51 52 52 53 54 55 56 57 58 59 62 64 67 70 73

GFSCGP_500_spd_063.txt.gz
Wind_Speed
42 41 36 31 35 35 32 30 29 27 30 32 30 28 27 30 24 23 24 23 23 28 29 33 33 31 29 28 28 29 29 29 28 28 29 29 29 29 28 28 29 30 29 29
46 44 39 38 39 37 36 34 33 32 34 37 35 34 30 31 30 28 27 26 28 30 34 37 38 34 32 31 29 30 30 30 30 29 29 29 31 32 33 32 32 33 34 34
51 48 45 44 43 41 39 38 38 39 38 39 39 42 35 30 32 32 30 30 32 33 38 41 42 38 35 33 32 32 30 31 31 30 31 31 33 34 36 37 38 37 36 36
55 53 49 46 44 44 43 42 43 43 43 41 40 51 37 31 30 31 31 33 34 35 39 44 44 44 39 37 37 34 33 32 32 32 34 35 35 36 38 40 41 41 40 40
55 54 52 50 46 47 48 47 46 46 46 46 46 50 45 35 33 31 32 34 37 35 43 49 47 49 45 40 38 37 36 34 33 35 35 36 36 37 42 43 42 43 43 42
59 58 55 53 50 49 49 49 49 48 48 49 50 49 46 40 38 35 35 35 38 41 46 44 42 43 44 40 40 40 38 36 35 37 37 40 40 41 42 44 44 44 45 44
59 60 58 55 54 52 51 50 49 50 53 52 53 54 50 44 46 40 40 40 40 37 37 39 39 37 37 37 37 38 38 38 39 40 41 41 41 41 39 41 43 45 46 46
59 61 60 59 56 53 50 49 51 56 56 54 55 59 55 50 46 49 48 48 45 41 40 38 37 37 39 39 38 38 39 40 41 43 42 41 41 41 40 40 43 46 47 48
60 60 60 58 57 55 55 56 53 53 55 59 60 57 57 56 53 49 51 51 52 49 42 42 39 38 39 41 41 41 41 41 41 41 41 39 38 39 41 40 42 42 43 46
57 61 59 59 59 60 60 60 59 59 59 61 62 62 59 58 58 58 55 53 56 54 48 40 40 41 44 46 47 45 43 42 41 39 39 40 41 40 41 42 42 42 43 44
61 60 63 64 63 61 59 61 63 62 61 63 65 65 62 61 60 62 63 62 56 50 42 34 33 37 42 45 46 47 48 45 42 43 43 42 40 39 40 41 42 44 45 45
53 62 71 69 65 65 65 64 64 65 65 64 64 70 65 63 65 63 62 62 63 61 48 38 37 32 37 43 44 45 46 46 46 45 45 45 44 43 42 42 43 44 46 47
45 50 57 68 74 76 75 71 68 68 68 69 70 72 66 69 67 65 65 67 65 60 53 48 44 43 47 48 46 45 46 47 46 45 44 46 46 45 45 45 45 46 48 50
55 54 57 62 61 60 63 65 66 64 66 76 74 75 71 71 69 64 62 58 57 58 54 52 47 50 51 51 49 47 48 48 46 45 46 47 47 47 48 48 49 50 51 53
60 61 57 58 52 55 57 57 58 64 68 68 76 69 65 64 61 60 58 55 55 55 53 52 54 52 49 49 47 46 43 45 47 47 47 49 49 49 50 50 51 51 53 54
64 61 56 56 51 50 51 53 54 58 60 65 67 66 60 55 55 57 56 56 57 56 56 56 54 54 53 50 48 48 48 48 49 48 47 46 46 49 49 51 51 52 54 56
51 54 64 67 53 60 68 60 55 55 55 56 59 57 47 53 53 52 53 57 60 59 57 57 57 57 57 55 55 54 53 53 53 52 48 47 45 45 47 49 50 51 54 57
59 51 57 59 53 71 65 60 59 61 59 57 54 54 48 48 52 53 51 54 53 54 57 59 59 59 58 58 57 57 56 55 53 51 49 47 47 47 49 50 51 52 55 58
57 64 70 70 57 66 62 45 54 61 64 60 59 54 52 50 55 51 46 50 54 55 54 55 56 56 56 54 54 53 53 53 54 54 54 53 53 54 55 56 57 57 58 60
68 61 62 65 60 56 44 40 46 53 58 56 62 62 57 59 61 53 55 54 54 54 55 55 56 56 56 57 58 59 60 59 58 58 59 59 60 60 60 62 64 65 65 63
83 77 76 72 67 69 53 50 60 57 56 56 54 53 57 64 65 61 60 61 61 61 61 61 61 61 62 62 63 64 65 66 66 67 68 67 66 64 62 62 64 63 62 60
60 60 78 86 79 66 60 62 51 51 51 56 62 58 56 60 62 63 63 64 63 62 60 64 64 61 61 65 64 61 61 62 63 63 64 64 64 65 64 63 63 63 62 62
56 46 48 45 40 42 52 54 59 75 65 63 52 53 60 68 68 61 61 64 66 67 65 67 65 65 63 63 61 61 62 62 61 62 63 64 64 63 62 61 60 59 61 59
65 67 69 69 71 67 62 48 45 48 45 49 54 53 54 53 52 52 52 54 58 60 62 63 66 67 67 67 67 68 66 65 65 62 61 61 59 58 56 55 54 55 56 57
88 89 78 77 74 71 69 69 69 66 64 59 61 55 54 52 51 52 56 56 52 50 49 49 53 55 58 61 59 56 60 63 62 59 57 54 52 51 51 52 53 54 54 55
74 83 85 83 69 64 57 53 52 50 65 69 68 66 64 59 60 60 62 63 63 67 68 61 55 50 50 46 49 47 50 46 44 46 47 50 52 53 54 56 57 58 58 59

GFSCGP_500_spd_066.txt.gz
Wind_Speed
38 38 36 32 36 38 38 35 31 28 31 32 30 27 27 28 21 21 22 22 21 23 29 30 30 31 31 31 30 30 28 29 31 30 30 30 31 31 31 31 31 31 32 32
42 42 38 38 40 40 39 37 33 32 34 37 34 31 29 30 25 24 26 25 27 27 28 33 36 36 36 35 34 33 32 31 31 32 30 29 31 30 31 32 34 35 36 37
44 45 43 43 44 43 41 40 37 37 39 40 37 39 33 28 29 30 27 28 29 30 30 34 37 40 39 40 41 38 36 34 31 31 30 29 29 30 32 34 36 37 38 41
49 49 48 47 45 46 45 42 43 43 44 44 40 48 36 30 32 30 29 31 31 31 31 35 38 41 44 46 45 41 38 35 33 32 32 33 33 33 33 36 38 38 40 43
49 49 50 50 47 48 49 48 48 48 47 47 45 51 42 35 33 32 32 32 34 36 34 35 38 42 47 46 43 38 36 35 34 33 35 35 35 35 37 39 40 43 43 46
53 53 52 52 52 52 53 52 51 51 51 52 49 49 50 42 34 35 34 33 35 36 34 35 40 40 43 41 40 36 33 33 33 34 36 37 38 38 38 39 41 44 44 43
52 54 53 53 53 53 54 53 52 53 55 55 54 55 54 48 42 39 36 35 38 39 39 40 40 43 43 43 41 39 38 35 35 36 37 38 40 40 42 43 43 44 43 41
55 56 55 54 53 52 50 51 52 56 57 58 59 59 55 50 49 45 43 42 40 43 43 42 44 43 47 44 43 41 39 38 37 38 40 41 42 45 46 45 45 44 43 43
57 57 56 54 52 52 56 58 55 56 58 62 64 59 57 54 52 51 48 50 47 45 46 45 46 49 42 40 45 44 44 43 41 41 42 42 41 42 42 43 43 42 43 44
56 58 56 56 58 58 58 57 58 59 62 65 66 64 59 55 56 56 54 54 53 52 50 52 49 43 38 38 39 45 45 47 47 47 46 45 43 42 42 42 43 44 44 44
52 59 62 62 61 60 58 58 60 61 62 64 66 68 61 59 61 61 60 57 57 55 56 56 55 53 46 43 42 43 48 48 48 49 48 47 46 45 42 43 44 42 44 45
49 52 57 62 63 61 61 61 61 63 65 65 64 69 62 61 62 65 63 61 59 60 59 58 58 57 53 44 44 47 45 45 48 50 48 48 47 46 45 45 43 44 46 46
48 51 50 53 59 64 69 68 65 62 64 67 67 67 60 64 65 63 63 62 64 62 62 60 58 57 56 48 49 53 51 47 46 49 50 50 51 51 48 46 45 44 44 46
58 50 55 58 53 56 58 61 62 65 67 72 73 70 62 66 65 65 64 64 66 65 63 62 59 57 54 50 50 53 54 54 52 51 53 53 53 51 49 49 49 49 49 50
60 61 61 56 53 59 61 60 60 61 63 67 64 64 65 64 68 69 65 64 63 59 57 57 59 59 58 55 50 51 52 51 49 48 49 49 49 50 52 51 50 50 50 51
65 66 63 66 63 62 64 63 62 64 65 67 67 65 52 50 54 59 58 59 60 59 59 60 61 61 61 60 58 54 52 49 49 50 50 51 50 51 51 52 51 50 51 51
53 53 61 66 64 65 70 65 61 61 62 60 60 56 45 49 51 50 54 54 56 58 56 57 59 61 62 62 61 59 57 55 52 53 54 54 52 52 53 52 50 51 52 52
65 51 52 58 60 67 62 55 63 66 61 58 63 57 52 49 47 53 53 52 53 51 53 56 57 58 58 59 59 58 57 55 54 51 50 50 48 47 47 48 50 51 52 53
72 72 68 58 64 64 55 48 52 58 58 58 66 64 59 56 62 57 49 54 54 55 54 52 53 55 57 57 58 57 55 55 53 52 51 50 51 52 52 52 52 54 56 57
66 68 78 80 69 67 66 58 57 56 62 50 62 64 60 59 68 62 59 61 60 59 59 56 55 55 54 55 55 55 55 55 55 57 58 59 59 59 59 60 61 61 62 63
69 72 73 77 82 85 67 67 73 75 69 69 59 54 52 56 56 59 63 64 64 63 63 62 60 59 59 60 61 62 61 59 60 61 61 61 62 62 61 62 62 61 62 63
70 71 69 72 73 75 78 76 69 61 57 49 54 48 40 45 52 56 55 57 62 62 60 61 61 61 59 59 59 60 62 63 65 66 65 62 61 61 61 60 63 63 63 64
72 71 71 67 67 59 64 64 68 76 74 73 61 52 62 56 51 52 55 61 63 64 64 63 60 58 58 56 56 57 59 62 66 68 69 67 65 65 63 62 63 62 62 63
68 67 73 68 64 59 59 58 59 65 65 68 61 47 57 45 41 49 55 55 58 65 68 64 56 50 51 53 54 55 57 59 63 65 67 65 64 61 62 63 61 59 59 59
66 69 69 74 71 61 66 66 64 56 53 54 54 53 45 50 48 51 48 51 58 60 59 57 54 51 50 52 52 53 50 50 49 50 52 52 53 54 53 50 48 47 48 50
62 64 65 69 72 76 70 69 66 67 68 67 67 67 69 69 64 69 69 64 63 61 55 52 56 57 59 60 60 61 66 64 56 60 51 48 51 50 49 48 50 51 53 53

GFSCGP_500_spd_069.txt.gz
Wind_Speed
37 35 35 32 33 35 34 34 34 32 33 35 34 32 30 30 24 21 22 21 20 21 26 27 29 29 28 29 30 30 29 33 32 31 31 32 31 31 32 33 34 33 33 33
39 38 36 37 36 37 37 37 35 33 34 39 37 35 31 31 26 26 24 23 24 25 26 29 32 32 31 31 32 32 34 37 35 33 32 31 30 29 31 31 32 33 34 35
43 42 40 39 41 41 40 39 37 36 38 41 41 37 32 33 28 28 26 26 27 28 29 30 32 33 33 32 34 36 39 39 36 34 31 31 30 29 29 30 32 34 36 37
47 47 43 42 43 44 43 42 41 41 43 45 44 45 36 34 33 31 28 30 31 31 32 32 34 33 37 35 35 36 39 38 37 34 31 30 33 32 32 33 34 36 37 38
49 47 46 45 44 46 48 47 46 46 46 48 47 50 42 35 36 33 32 33 34 34 35 36 35 36 36 39 38 39 40 39 39 34 31 32 34 35 34 35 37 39 40 41
51 52 51 49 48 48 50 51 50 50 50 52 49 51 50 43 37 36 36 37 37 38 39 38 36 34 37 40 41 41 41 42 42 37 34 32 34 38 38 38 41 42 43 43
51 53 53 51 51 50 51 53 52 53 56 54 56 56 53 53 46 43 40 41 41 40 40 41 40 39 38 40 44 44 44 42 43 41 37 36 36 37 36 39 40 42 43 45
53 55 54 52 51 49 47 49 51 55 56 59 62 59 51 57 53 49 47 46 45 44 45 45 45 45 43 42 44 45 46 41 42 41 41 39 38 39 38 40 42 43 45 46
54 53 53 53 51 52 54 55 51 54 56 61 64 60 58 57 56 57 51 49 49 49 49 49 48 48 45 45 46 47 41 42 42 43 44 44 44 43 43 45 45 43 44 45
51 59 61 58 56 57 56 55 56 59 61 64 65 63 60 57 60 58 60 56 56 55 54 52 49 48 51 51 50 49 50 48 47 46 46 48 49 48 48 46 43 44 44 44
48 51 58 60 62 63 60 59 60 61 62 63 64 66 59 59 61 62 61 60 62 59 57 56 54 54 54 53 53 52 53 51 48 47 48 50 52 51 48 46 46 45 46 45
51 53 52 54 58 61 64 61 59 63 63 66 65 67 57 58 59 61 63 62 62 62 62 60 59 54 52 52 55 56 56 55 53 49 49 49 48 48 48 49 49 49 49 48
52 54 55 54 55 56 57 58 59 63 62 66 68 65 51 56 60 60 60 58 60 61 62 61 57 54 54 57 59 58 58 59 55 52 51 52 51 53 55 56 55 54 52 49
59 57 59 60 55 59 59 57 58 58 62 63 68 64 57 59 60 60 58 61 62 64 64 66 66 65 64 63 64 63 62 57 53 50 47 45 49 53 54 55 53 51 50 48
67 66 62 63 63 60 63 62 60 58 59 65 61 60 53 52 54 55 59 62 62 67 69 67 68 68 69 70 67 66 64 60 53 50 50 47 46 49 52 52 52 52 52 52
65 67 69 73 69 68 68 67 66 63 62 64 62 63 54 52 53 57 57 61 64 64 64 65 65 67 69 68 68 65 61 60 57 54 53 54 52 52 53 55 54 55 56 56
64 60 58 68 68 71 75 71 68 70 66 63 65 60 57 57 58 59 59 63 63 64 63 61 60 61 63 62 61 61 61 61 59 56 54 53 54 54 55 57 58 57 57 56
64 65 62 62 59 61 67 69 72 74 73 72 72 67 63 64 60 56 61 63 59 60 61 63 61 60 58 57 57 57 59 60 59 58 55 53 52 52 52 53 54 54 54 51
58 60 66 77 66 63 57 58 57 60 65 65 68 67 62 57 64 68 60 62 63 65 63 64 63 60 57 57 57 57 59 58 56 55 54 53 50 49 49 51 51 53 54 55
60 63 67 67 74 81 76 69 64 65 68 58 57 60 65 55 59 51 62 66 69 68 67 68 67 65 64 62 60 59 59 58 57 57 57 57 56 55 54 54 55 57 58 58
65 66 67 68 71 75 66 65 69 83 79 73 69 68 59 53 57 58 62 63 63 65 71 74 75 73 71 68 65 63 63 64 63 64 63 63 63 61 60 59 58 59 59 59
68 68 68 68 69 72 66 66 69 73 74 75 80 80 77 66 62 68 74 76 74 76 71 67 67 69 67 67 69 69 66 65 66 66 66 64 63 64 63 64 64 65 65 65
73 70 68 69 71 65 66 65 59 61 63 68 75 76 77 73 69 66 63 60 56 59 54 54 62 60 58 57 59 60 59 59 57 57 56 56 56 57 60 64 67 67 67 67
72 70 73 73 73 71 69 67 64 56 63 64 66 69 70 73 78 78 74 70 67 69 69 55 58 56 56 55 54 55 60 58 55 56 57 52 51 52 56 57 60 61 59 59
67 67 69 71 73 72 70 69 70 72 74 64 60 61 64 63 65 67 72 71 67 69 71 66 65 60 56 55 54 53 52 51 54 52 49 50 54 56 57 63 63 60 58 56
64 64 64 65 61 63 65 66 68 70 71 71 69 68 67 68 68 67 63 63 60 65 61 57 58 56 58 63 65 65 68 64 61 60 62 64 66 59 63 64 62 58 57 54

GFSCGP_500_spd_072.txt.gz
Wind_Speed
37 36 34 32 32 32 34 32 32 32 31 31 32 30 29 28 26 25 24 24 21 20 23 23 23 23 23 23 24 23 24 26 28 30 30 28 26 26 27 28 29 31 33 32
39 38 36 36 36 35 35 35 34 32 33 32 33 34 29 28 27 28 27 24 24 23 25 27 25 26 26 26 25 26 27 26 29 30 31 30 29 25 26 27 28 29 33 33
40 40 40 39 37 38 38 38 36 35 38 34 36 39 29 31 29 28 25 26 27 27 28 29 29 27 28 28 29 30 29 29 29 32 33 32 31 27 27 28 31 30 31 33
44 43 42 42 40 40 40 40 40 39 39 40 40 43 31 32 28 27 27 28 30 30 30 31 32 30 28 31 32 32 32 33 31 33 34 35 32 30 31 33 33 35 35 36
46 44 45 43 42 43 43 42 44 42 43 44 42 45 34 31 32 30 30 31 33 33 34 35 35 36 35 34 35 34 34 36 35 36 36 36 34 33 33 34 34 37 39 39
49 49 47 47 45 45 46 45 46 47 47 47 46 45 44 36 36 35 33 34 36 37 37 39 40 39 39 36 36 38 39 39 40 40 40 38 37 35 35 35 35 39 41 41
48 49 49 48 48 48 49 49 49 49 51 49 52 50 46 48 43 38 38 37 39 40 42 42 42 43 42 41 40 39 41 42 43 43 44 39 37 39 38 36 34 37 40 41
48 50 51 50 48 46 47 48 50 53 54 53 55 51 46 51 51 48 45 46 45 46 45 46 47 47 46 46 45 42 42 43 44 45 43 41 46 41 42 42 35 40 42 43
47 47 49 49 48 50 52 53 49 52 54 59 59 53 52 51 53 56 54 52 51 50 49 49 49 50 50 49 48 47 46 46 46 45 49 45 42 45 43 44 44 44 44 47
42 44 46 48 51 53 53 53 53 55 57 60 61 58 53 53 55 56 57 57 56 56 54 52 53 52 53 52 51 52 52 52 52 50 48 49 47 45 45 44 46 47 45 46
44 47 45 45 46 50 54 53 55 56 57 60 60 60 55 55 57 58 58 58 57 57 55 52 53 53 53 55 55 53 53 54 57 55 52 51 51 48 47 47 49 46 44 45
50 52 52 51 51 50 51 51 55 61 60 64 63 62 52 54 55 58 59 60 58 56 58 56 55 54 54 54 55 55 55 56 57 56 56 54 54 52 48 50 52 54 54 53
55 57 56 56 56 58 57 53 51 52 55 61 65 58 50 55 57 56 56 56 57 59 60 60 57 55 55 55 56 57 59 58 57 59 61 59 55 51 46 48 50 54 57 59
55 56 59 59 57 60 61 59 54 53 56 58 57 54 47 51 54 56 60 64 64 63 63 62 62 63 63 62 60 63 64 66 64 63 58 55 53 54 51 49 52 55 54 56
61 62 60 61 60 56 56 61 60 60 60 59 59 58 49 46 52 55 54 55 59 64 64 62 61 63 65 68 66 66 65 64 64 61 58 55 54 55 55 53 53 54 54 53
63 62 62 63 62 62 62 63 66 63 61 60 63 66 58 57 54 58 58 58 59 59 61 61 60 63 67 67 67 65 64 64 64 61 58 55 55 55 54 54 54 54 55 56
67 67 67 70 70 72 74 70 67 67 67 68 70 71 66 65 61 61 62 65 67 67 68 68 67 68 67 69 69 68 65 61 59 58 58 56 55 54 54 53 50 49 50 51
60 61 61 66 66 67 71 67 70 73 71 69 69 71 69 71 71 68 65 66 67 67 68 68 68 67 66 67 66 65 64 62 59 58 57 57 56 56 54 52 48 46 47 48
51 54 56 59 63 67 69 69 65 65 63 60 63 67 68 69 69 67 69 71 72 72 74 74 72 70 70 65 65 65 65 64 64 62 60 59 58 57 57 55 52 49 49 50
54 56 58 58 62 65 62 58 60 65 74 70 72 65 57 55 57 54 57 61 65 70 70 68 70 70 71 70 69 70 69 68 69 69 68 66 64 61 60 60 60 60 59 58
60 61 62 61 64 67 55 55 58 65 66 66 74 75 73 72 73 64 60 60 62 58 61 66 65 63 64 65 67 67 70 71 72 73 75 73 70 67 66 65 65 64 64 62
64 65 66 67 69 72 60 60 63 67 66 66 67 68 73 72 72 71 70 71 71 67 67 71 68 64 64 67 70 74 76 77 77 75 72 71 70 69 66 66 65 64 62 59
69 69 68 69 70 70 68 68 69 70 70 69 70 68 68 69 67 66 66 68 68 72 74 80 80 75 71 69 68 69 64 60 65 64 63 62 60 59 59 59 58 58 59 55
72 70 73 73 72 70 69 69 70 69 69 70 71 67 65 66 67 69 64 57 62 65 68 69 70 70 72 69 69 71 70 69 61 61 60 60 59 58 55 56 59 59 52 53
70 71 70 73 72 71 69 65 65 66 65 65 69 70 65 61 58 57 60 70 72 67 64 64 64 66 66 70 75 65 64 62 60 61 51 54 54 56 57 55 58 61 59 62
65 66 68 70 67 67 67 63 63 66 65 62 62 65 68 71 71 72 76 77 67 67 66 67 68 66 65 67 65 62 57 55 56 54 56 56 58 58 63 65 67 68 65 61

GFSCGP_500_spd_075.txt.gz
Wind_Speed
34 34 32 31 31 32 32 32 30 32 29 30 29 29 29 30 28 26 23 22 21 20 23 21 21 20 19 18 19 18 18 19 21 20 21 23 24 24 26 26 25 26 27 27
35 35 34 35 34 32 33 32 32 33 32 31 31 29 29 29 28 26 25 24 23 24 25 26 23 21 22 22 22 21 21 22 23 22 23 23 24 25 26 27 29 31 31 30
37 36 35 36 36 35 34 34 35 34 35 33 31 31 28 27 27 26 26 26 26 28 28 28 27 25 24 25 27 25 25 25 25 25 26 25 26 26 27 28 29 33 35 35
41 39 38 37 35 36 36 37 36 37 36 37 35 36 29 28 29 27 27 28 29 30 29 29 30 29 27 27 29 31 30 29 27 29 30 29 28 29 29 30 30 32 35 37
43 42 41 39 38 39 38 39 40 39 39 39 38 40 28 28 30 28 29 30 28 31 32 33 34 34 32 32 33 34 34 32 32 34 34 33 34 33 31 31 32 33 36 38
48 46 45 44 43 42 41 41 43 43 42 42 41 40 42 30 31 31 31 32 33 35 35 37 38 38 38 38 38 38 39 38 37 38 38 37 38 37 34 31 31 34 37 40
50 49 47 47 47 46 45 45 45 45 46 44 45 43 44 44 36 36 35 35 37 39 42 42 42 42 42 43 43 43 41 42 41 40 42 42 41 41 39 38 36 34 37 41
47 49 48 47 48 46 45 46 48 49 50 49 49 48 44 47 45 41 41 44 44 42 43 44 44 46 47 47 47 47 47 45 45 44 44 45 45 45 44 42 38 40 40 42
45 45 45 46 46 47 48 51 47 49 52 54 55 50 50 48 50 50 48 47 46 48 49 48 49 50 49 48 48 49 50 50 49 49 48 47 48 48 47 47 44 40 41 44
50 51 50 48 47 47 48 46 48 50 53 55 56 55 50 51 49 51 50 53 53 51 50 50 49 50 51 51 51 53 54 54 54 53 53 52 52 51 49 48 47 45 45 46
43 46 48 47 47 43 43 44 47 49 50 52 52 52 51 51 52 53 55 55 56 56 54 52 50 51 50 50 52 54 55 57 57 58 58 59 57 54 50 48 47 49 50 48
42 40 41 40 41 40 42 43 44 45 46 49 52 54 50 48 50 51 53 54 55 56 56 56 57 56 54 53 54 56 57 58 59 60 59 56 54 53 51 51 53 53 51 51
47 47 46 46 46 47 46 48 48 49 51 49 52 38 37 46 47 49 51 56 57 58 59 60 60 58 57 57 55 56 56 58 59 58 57 56 56 57 57 58 55 52 53 56
53 53 55 54 55 55 54 53 54 54 56 56 56 51 43 49 50 49 51 53 57 59 62 64 66 65 64 63 63 62 61 60 59 58 58 57 57 57 58 58 58 56 58 58
55 59 62 61 60 61 60 59 58 58 58 62 59 60 46 51 53 55 55 54 55 56 57 58 59 59 57 57 57 57 55 55 56 55 54 54 56 57 58 57 57 57 55 54
62 59 55 55 55 55 58 59 59 58 60 61 64 66 60 60 61 62 63 63 62 60 61 62 61 59 59 58 55 56 57 58 59 60 59 57 56 55 54 55 55 54 54 52
61 59 61 63 62 62 61 63 61 62 60 59 58 54 58 64 65 67 68 68 69 70 69 69 69 67 67 68 68 62 62 61 62 62 61 59 57 56 55 53 53 54 54 53
63 63 64 66 66 72 69 68 68 67 68 70 72 72 73 73 72 72 74 75 76 76 75 74 74 73 72 72 72 71 69 67 66 65 65 64 62 60 59 57 56 56 56 55
48 50 53 57 61 67 70 69 65 66 66 66 69 71 73 73 71 71 75 77 77 76 76 77 78 77 75 74 75 76 77 75 71 70 69 66 67 67 65 65 63 61 61 61
47 47 50 53 56 58 57 54 53 55 61 62 57 59 59 61 64 65 67 71 70 68 70 72 71 71 71 68 69 70 72 75 72 65 66 71 70 68 64 63 62 62 66 71
52 53 54 53 58 60 49 51 55 60 58 59 59 60 60 61 62 59 60 64 70 73 69 65 65 65 65 68 71 68 67 65 67 67 63 61 65 67 66 66 68 65 64 66
58 59 60 61 63 65 51 57 61 63 64 64 65 64 65 66 64 63 61 62 65 67 70 75 76 75 74 73 74 75 76 72 72 70 72 68 60 60 63 63 64 62 61 65
65 64 64 65 66 65 63 64 66 69 70 68 70 70 71 70 69 68 67 67 68 69 69 70 69 68 69 68 69 66 66 71 73 76 78 73 67 65 61 58 59 55 55 64
68 68 71 70 70 69 70 71 70 70 72 73 74 74 74 73 73 73 73 72 72 74 74 74 73 72 71 70 67 62 68 69 70 69 68 65 66 71 69 61 62 61 57 59
72 72 73 74 71 71 69 67 68 68 68 70 71 73 75 74 72 72 70 68 70 73 75 76 75 74 67 73 75 73 72 69 67 65 63 59 59 59 60 61 62 54 48 47
71 72 71 72 71 73 72 69 69 69 68 67 69 69 68 70 69 69 67 68 67 67 68 72 71 71 71 75 76 77 79 73 67 67 65 63 63 58 59 55 48 45 47 49

GFSCGP_500_spd_078.txt.gz
Wind_Speed
32 32 30 29 31 35 34 32 31 31 31 31 30 28 29 31 28 28 26 26 25 22 25 24 23 21 18 18 18 17 17 19 19 19 19 18 18 18 19 20 22 23 24 25
32 32 32 33 33 34 33 32 31 32 33 31 31 29 29 31 28 27 28 28 28 27 27 29 27 24 22 22 22 22 21 20 21 21 23 21 22 20 21 22 24 25 27 27
35 34 34 33 34 34 34 33 32 33 33 32 31 28 29 30 28 29 28 28 30 30 30 30 29 28 27 26 26 25 24 24 25 25 26 25 25 24 25 26 27 28 27 29
39 38 35 34 34 34 34 34 35 35 35 34 32 31 26 28 29 29 29 30 31 31 31 31 32 32 31 30 29 29 30 28 29 29 29 29 30 29 31 30 31 30 29 30
42 40 38 36 36 37 35 36 37 36 37 36 34 37 28 27 30 29 31 31 30 32 34 35 36 36 35 34 34 34 34 34 35 34 34 35 35 34 33 35 35 33 34 33
47 45 44 42 42 41 40 38 38 38 38 38 36 37 38 31 31 32 32 34 34 34 35 37 38 39 40 40 39 39 40 39 39 39 40 39 39 40 39 38 38 38 38 38
51 50 48 47 45 45 45 44 43 43 42 40 41 40 42 39 35 36 35 36 37 37 40 41 42 43 45 45 44 44 45 44 44 44 43 43 44 44 44 43 43 41 40 41
52 52 50 49 49 47 46 46 45 47 47 45 46 44 42 45 42 39 40 41 42 43 44 45 45 47 49 49 49 51 50 50 50 49 47 46 46 47 47 46 47 44 45 46
50 52 52 52 52 52 52 52 47 49 51 52 50 48 46 47 48 47 45 47 48 48 47 47 48 50 51 51 52 53 53 54 54 52 52 52 50 49 49 49 49 49 50 50
49 51 51 49 49 51 52 49 49 50 52 54 54 52 50 47 49 50 50 49 49 51 52 51 50 50 52 52 53 55 55 56 57 57 57 57 56 53 52 51 52 52 52 52
48 48 49 48 50 49 49 49 48 48 49 51 52 50 49 48 50 53 53 53 51 51 52 52 53 54 54 54 55 55 55 56 57 57 58 59 58 55 54 53 49 48 49 50
49 52 55 53 51 52 52 52 53 53 51 49 49 49 49 48 51 53 53 51 52 52 52 53 55 56 55 54 54 53 55 55 56 57 57 58 58 57 55 54 53 52 52 51
45 48 50 52 52 53 53 52 52 50 48 46 45 44 40 41 43 42 43 46 49 51 55 56 57 58 56 55 56 56 56 56 57 57 57 58 59 59 58 58 59 56 55 55
46 44 43 46 47 48 48 45 46 47 49 46 44 40 41 45 46 44 48 52 52 53 55 56 57 58 56 54 55 57 55 54 52 51 50 52 53 54 54 53 52 52 54 57
52 51 50 52 53 53 52 51 51 51 53 54 52 50 46 48 53 55 56 57 57 58 59 59 58 57 57 57 55 56 58 59 60 59 57 55 55 54 54 55 57 58 59 59
58 57 59 60 59 56 55 55 58 61 63 65 64 65 58 58 61 62 64 66 67 66 65 65 65 65 65 65 64 63 61 62 63 64 63 63 64 65 63 59 58 58 59 60
57 58 55 53 58 60 62 60 61 60 62 60 64 63 65 66 67 66 65 64 66 68 70 70 70 71 72 72 73 73 72 70 69 68 67 68 68 68 67 67 66 64 64 63
60 59 59 61 62 63 62 63 61 58 55 58 58 60 61 64 66 66 66 70 72 75 76 77 78 79 80 80 80 80 80 81 78 74 73 72 73 73 74 74 73 71 70 70
70 65 62 61 63 68 69 70 66 68 68 68 71 74 73 74 74 70 72 77 80 83 84 84 84 84 84 85 84 82 80 80 80 79 77 72 66 66 66 67 70 72 72 69
60 55 52 57 60 62 67 58 58 57 65 63 60 62 66 69 71 68 69 71 72 75 77 77 77 77 77 76 78 77 76 72 71 70 70 68 66 65 67 64 60 61 66 66
50 50 51 51 53 57 57 53 52 54 57 56 56 57 58 58 59 59 60 61 64 66 67 67 68 69 69 70 71 72 72 74 73 71 71 72 75 73 74 71 69 66 66 63
53 53 54 55 56 59 53 52 56 57 57 58 59 59 61 62 61 62 61 64 66 67 68 68 68 69 71 72 72 72 72 71 72 77 76 68 66 64 61 63 64 65 66 63
60 59 59 61 61 57 59 61 62 63 64 64 65 66 67 68 68 69 67 66 70 72 73 74 75 74 75 75 74 74 75 75 75 73 72 69 68 70 71 69 71 69 66 64
65 65 68 68 65 64 65 67 68 69 70 71 71 72 74 74 74 74 75 74 75 77 78 79 79 79 79 79 80 80 79 79 79 78 77 71 70 71 73 70 67 64 59 53
69 71 72 74 72 72 72 72 73 75 76 75 75 76 78 80 80 80 80 80 80 80 79 78 76 75 74 74 74 75 76 77 77 77 75 73 74 79 79 81 69 64 57 54
64 69 74 75 74 75 74 72 72 73 74 75 76 76 74 76 76 76 75 75 74 72 71 70 70 68 67 66 65 66 68 71 73 74 74 75 77 82 78 73 68 64 60 64

GFSCGP_500_spd_081.txt.gz
Wind_Speed
37 38 35 32 33 34 36 34 32 32 31 32 30 27 26 27 25 27 27 26 26 26 27 24 25 26 23 22 22 21 21 22 21 20 19 19 19 19 19 20 21 19 21 24
36 36 35 36 35 36 34 34 32 32 32 33 32 27 27 29 27 27 27 29 30 29 29 29 28 27 26 26 26 25 25 23 24 23 24 22 23 22 24 25 26 26 25 24
36 35 35 34 35 34 33 32 32 32 33 33 32 29 27 30 28 29 28 30 32 32 30 31 30 29 30 30 32 31 28 27 27 27 28 28 28 27 27 29 30 31 31 29
39 38 36 35 33 34 34 33 33 33 35 35 32 31 25 27 28 30 31 30 31 32 33 33 33 33 32 34 34 34 33 31 32 32 31 33 34 32 33 34 34 35 36 36
42 40 38 36 33 34 35 35 35 35 36 35 32 35 30 28 29 30 31 32 32 33 34 35 35 35 35 36 37 38 38 37 37 38 37 37 38 38 38 39 39 40 41 41
48 45 42 39 38 38 38 37 37 36 36 36 34 35 35 33 31 30 32 33 34 34 35 37 38 38 38 39 40 41 42 42 42 42 43 43 43 43 43 44 45 45 45 46
50 49 47 44 43 43 42 41 40 39 39 38 38 37 37 38 35 35 35 36 37 38 40 41 41 41 42 43 44 45 45 46 47 48 48 48 48 48 48 48 49 50 50 49
54 53 50 49 47 46 45 44 44 45 44 43 43 41 41 42 41 39 40 41 41 41 42 43 44 45 46 47 48 49 50 50 52 51 53 53 54 54 54 54 53 51 51 53
55 55 53 52 51 50 50 50 47 49 49 49 47 46 46 46 47 47 45 44 45 45 45 46 47 48 50 50 51 51 52 52 54 54 55 56 57 58 57 57 56 53 53 55
57 55 54 53 52 53 54 52 51 53 54 54 53 52 52 50 52 53 54 51 50 50 51 51 51 51 52 52 53 55 56 56 56 57 57 56 56 57 56 56 55 56 56 57
54 54 55 55 56 55 55 56 56 56 56 57 57 56 55 56 55 55 55 55 54 51 51 52 53 54 54 54 53 55 57 57 57 56 57 56 56 56 56 55 55 56 55 55
50 52 53 53 52 52 53 54 54 55 55 55 55 56 56 56 57 56 53 53 52 50 50 50 51 53 55 55 56 56 57 56 57 58 58 58 60 61 62 63 61 59 57 57
51 54 54 55 56 54 55 54 53 53 53 54 54 52 53 52 53 53 54 54 52 51 50 49 49 49 49 51 52 52 53 54 55 55 57 58 59 60 62 64 66 65 65 63
52 54 55 56 54 54 55 55 55 54 56 56 56 54 56 57 54 53 50 48 49 50 50 50 50 51 52 52 54 55 56 57 57 57 57 57 57 57 57 57 58 59 59 59
52 49 50 50 50 52 49 50 51 53 53 54 52 52 52 53 52 49 50 52 52 53 53 55 56 56 58 60 61 61 62 62 62 62 62 63 64 64 63 61 61 61 62 63
52 45 46 49 53 51 50 48 49 49 50 51 51 47 46 50 52 55 57 58 60 62 63 64 66 66 66 66 67 68 69 69 69 69 69 69 67 67 69 70 71 71 70 69
52 53 54 54 54 56 56 53 53 53 54 55 55 49 54 58 60 64 66 66 67 68 70 71 72 71 70 70 70 69 70 72 74 76 78 79 78 77 77 77 78 77 77 76
58 57 56 58 59 63 59 60 59 61 60 59 59 60 61 64 64 63 67 71 72 73 75 76 77 78 79 79 78 79 81 82 82 81 80 79 79 79 79 78 76 75 73 74
58 57 60 62 62 60 60 63 64 60 57 57 59 60 62 64 65 66 69 71 73 75 77 79 81 83 84 84 85 86 84 83 82 80 78 76 74 72 70 70 70 68 65 64
60 59 62 63 64 67 64 62 63 66 68 66 64 65 66 69 71 71 76 77 78 80 82 82 82 81 80 78 79 78 78 78 78 79 77 76 75 73 71 68 67 69 70 69
71 69 63 64 67 72 73 78 69 63 66 62 61 63 65 65 65 64 66 68 70 70 70 71 71 71 73 74 74 75 75 75 75 75 75 75 74 73 73 71 70 69 69 73
63 58 58 58 56 65 64 58 58 56 57 60 60 59 59 59 60 60 62 64 66 66 67 68 69 71 73 74 76 77 79 79 80 80 80 80 80 80 78 76 76 75 72 67
52 51 50 51 50 49 54 58 59 59 59 59 59 60 61 61 60 62 63 66 68 70 70 72 74 74 77 80 81 82 84 85 86 87 86 86 85 84 83 83 81 80 78 72
53 53 55 55 54 53 57 61 64 66 66 65 66 67 68 68 68 69 70 71 75 77 78 79 80 81 81 84 84 84 83 81 80 79 79 78 78 77 78 78 77 76 76 73
59 60 59 62 59 62 66 68 69 72 73 74 75 75 76 78 77 78 78 79 81 84 84 84 83 81 78 77 77 78 78 77 76 76 76 76 75 74 72 71 70 69 69 70
52 53 58 58 60 64 67 71 72 73 75 76 78 79 80 82 82 82 82 82 83 83 83 81 79 78 76 76 74 74 73 72 71 69 68 70 70 69 68 66 66 65 65 64

GFSCGP_500_spd_087.txt.gz
Wind_Speed
45 44 41 37 36 37 36 36 35 35 32 30 28 26 26 24 21 23 25 24 24 26 29 26 26 24 23 23 23 23 23 24 23 23 23 22 21 20 22 23 23 24 24 26
43 42 38 38 40 39 39 38 36 35 34 33 30 29 28 27 25 25 26 26 25 27 29 28 27 27 26 27 26 26 28 27 28 28 28 26 26 25 27 27 29 30 29 29
40 38 39 39 38 38 38 38 35 36 36 36 33 30 29 30 28 27 27 28 27 27 28 28 29 29 29 29 30 30 30 31 31 32 32 31 31 31 32 33 33 34 35 36
41 40 41 40 39 40 40 37 38 39 38 38 36 33 29 31 30 28 28 29 28 28 29 29 29 30 30 31 31 32 33 33 34 35 35 36 36 36 38 38 39 38 40 41
38 39 39 40 37 38 39 37 38 38 38 40 36 35 31 30 31 29 28 28 29 28 28 29 29 30 31 32 32 33 34 35 36 37 37 38 39 40 42 42 44 44 45 46
42 41 41 39 39 40 39 38 38 39 40 42 36 35 33 31 31 31 31 31 29 28 28 28 29 30 31 32 34 34 35 36 37 38 39 41 41 42 43 45 47 49 50 51
43 41 40 40 40 41 40 38 39 40 41 41 36 36 35 35 34 34 33 33 32 31 30 31 32 33 34 34 35 36 38 39 40 41 42 43 44 46 47 48 50 52 54 54
41 43 41 40 40 39 38 38 39 39 39 38 38 40 37 37 37 34 33 32 32 32 33 34 35 36 38 38 39 40 42 43 44 45 46 48 49 50 52 53 55 56 57 58
46 47 45 42 41 42 41 42 41 40 41 41 43 42 39 39 38 35 35 36 36 35 35 35 35 36 38 40 42 44 45 46 47 48 50 52 53 55 56 57 58 59 61 61
56 54 51 51 47 45 44 45 45 45 44 45 44 44 42 41 41 41 41 40 40 40 39 40 41 41 42 43 43 46 48 49 51 51 52 53 53 54 56 57 57 58 59 60
60 58 59 56 53 50 47 46 46 47 48 48 49 48 46 46 45 45 46 46 47 46 45 45 46 47 48 49 50 51 52 52 51 52 53 54 55 55 57 59 59 60 62 63
56 57 58 59 56 56 50 49 49 54 52 52 51 51 51 51 50 50 51 52 51 50 49 49 50 50 50 50 51 52 52 53 54 54 55 55 54 55 56 56 55 56 56 58
54 59 58 58 59 62 64 59 57 56 57 56 55 53 55 54 55 55 55 53 53 52 52 53 53 53 53 52 51 50 50 51 53 54 53 53 52 51 52 53 55 57 59 61
51 54 57 59 57 55 58 60 59 58 58 58 57 54 55 54 54 52 51 52 53 54 54 54 53 53 53 53 55 55 54 53 53 55 55 54 54 55 56 59 61 63 65 66
57 52 54 56 60 61 58 58 57 57 56 56 55 53 53 54 50 52 53 54 54 53 52 54 56 58 59 59 58 58 58 58 57 56 56 59 61 63 65 66 68 70 71 73
48 50 53 59 57 55 58 55 53 53 55 56 54 53 51 53 56 55 54 55 56 57 58 57 57 56 56 57 58 58 59 61 63 65 67 68 70 72 73 75 76 78 78 78
50 51 50 50 53 59 59 56 54 53 54 53 53 50 51 53 54 55 55 53 53 54 55 55 54 54 55 57 58 60 61 63 65 67 69 72 74 76 77 78 79 79 80 81
53 52 51 45 46 54 49 49 50 50 48 49 50 50 54 53 52 51 51 51 50 51 52 55 56 58 60 61 63 65 67 69 71 72 74 76 76 78 78 79 79 80 81 81
53 51 49 51 51 54 53 52 53 53 51 50 51 54 55 54 53 52 52 52 54 54 56 58 60 63 65 66 68 70 73 75 76 78 80 81 82 82 82 84 86 88 89 90
53 56 58 59 59 60 56 56 57 58 56 56 55 52 52 54 55 54 55 55 56 57 59 61 64 67 69 71 74 76 78 79 80 81 83 84 85 90 92 93 94 95 95 94
54 55 57 58 58 59 60 59 60 60 55 52 50 51 54 55 56 57 59 60 62 64 65 67 68 70 72 75 76 76 77 77 79 82 84 86 88 90 93 94 95 97 97 97
58 59 61 65 65 65 64 65 64 60 60 62 62 61 61 63 63 61 62 63 65 66 66 67 67 68 69 71 73 74 76 78 80 82 85 86 87 89 90 91 91 91 90 89
68 66 63 65 66 62 64 67 67 65 65 65 65 65 63 62 62 62 62 64 63 62 62 62 63 66 70 72 74 76 78 80 81 81 83 86 88 89 89 89 89 89 88 87
64 64 67 68 70 71 70 69 68 68 65 65 67 67 64 61 59 59 58 58 59 61 62 65 67 68 71 73 75 76 78 80 82 85 87 88 88 87 86 86 86 85 83 81
63 60 63 60 63 61 63 69 74 71 66 63 62 61 59 57 57 58 59 59 60 63 65 66 67 68 72 75 77 80 81 84 86 87 87 86 85 84 84 83 82 81 79 78
62 61 58 53 48 49 49 51 54 58 60 61 60 57 57 56 57 59 61 62 63 63 65 67 69 72 75 78 80 82 84 85 85 85 83 82 82 81 82 81 79 78 75 71

GFSCGP_500_spd_090.txt.gz
Wind_Speed
51 50 50 46 44 42 41 39 38 39 36 34 31 29 27 25 25 24 24 23 24 26 25 24 25 24 23 23 22 22 23 24 23 23 23 23 23 23 24 25 26 26 28 28
49 48 45 44 44 42 44 42 41 40 39 36 34 31 30 28 28 26 26 25 25 26 27 26 26 27 28 28 27 26 27 26 27 27 27 27 27 27 29 30 32 32 32 32
46 43 44 45 44 43 43 43 41 39 39 38 35 34 34 31 30 29 28 28 27 28 27 26 26 28 29 29 29 29 30 30 30 31 31 32 31 32 34 35 37 37 38 38
46 43 43 44 43 44 43 41 41 41 40 41 38 37 35 34 32 31 30 30 29 28 29 28 27 28 29 29 31 31 32 33 34 34 33 34 35 36 38 39 40 40 42 43
46 44 44 44 42 43 41 41 41 42 43 43 40 39 36 35 34 32 31 30 30 28 29 29 29 29 30 30 30 31 32 33 34 36 36 37 37 38 40 41 42 43 44 46
44 43 44 43 43 45 43 43 43 44 44 46 41 41 37 36 35 34 32 31 30 30 29 29 30 30 30 31 32 32 33 34 35 36 38 38 40 41 42 44 45 47 48 49
47 46 45 45 45 45 44 44 45 45 46 47 42 41 39 37 35 36 35 33 32 32 32 32 32 33 33 33 34 34 35 36 37 38 39 41 42 43 45 47 48 50 51 53
45 45 43 44 43 43 42 41 41 41 43 43 42 42 41 38 38 37 36 35 35 34 34 34 35 35 35 36 36 37 38 39 41 41 43 44 46 48 49 50 52 53 54 56
45 45 44 43 43 41 41 42 40 40 42 43 44 42 40 39 38 36 35 36 35 34 33 33 33 34 35 36 38 40 41 42 43 44 46 47 49 51 52 54 56 56 58 60
50 45 43 42 43 43 42 41 41 42 43 43 44 41 40 38 35 35 36 37 38 38 37 36 36 36 37 39 39 41 42 44 45 47 48 50 52 53 54 55 56 58 59 60
63 54 50 49 45 43 43 41 40 42 44 43 43 41 38 37 38 39 40 40 40 39 40 42 42 43 43 43 44 45 47 48 50 50 50 51 52 53 55 55 57 58 59 60
51 60 54 51 52 49 48 46 45 45 42 44 44 44 43 43 42 43 44 45 45 45 46 47 46 46 46 47 49 50 52 53 53 54 54 54 54 55 54 56 58 59 58 58
54 58 58 62 59 57 59 54 50 50 49 48 47 45 47 46 46 47 49 49 49 49 49 49 49 50 50 51 52 52 53 53 53 53 53 53 54 55 57 59 60 60 59 58
59 61 62 62 60 59 61 60 57 58 59 55 53 49 49 48 50 51 50 51 52 52 52 52 53 53 52 53 53 53 52 51 52 55 56 56 56 57 58 60 62 63 64 65
63 62 59 59 61 62 59 59 57 58 54 59 56 58 57 56 56 54 56 56 55 56 55 54 55 54 53 53 53 54 56 58 57 55 54 54 54 55 57 59 62 64 67 69
72 68 60 60 61 61 63 63 61 61 59 59 54 56 54 60 62 61 59 54 52 52 52 53 53 53 55 57 58 59 57 55 53 53 55 57 59 60 63 65 67 69 70 72
49 49 50 57 68 64 67 66 61 56 57 57 59 54 53 53 53 53 51 53 55 56 56 55 55 58 58 57 56 54 53 54 56 59 61 63 65 67 69 71 74 77 79 80
51 50 48 48 57 63 58 63 61 60 58 57 57 57 54 54 53 55 58 58 57 55 55 56 57 57 55 53 53 55 58 61 63 64 67 68 71 74 76 79 82 84 85 86
54 53 54 56 55 53 51 50 49 49 47 47 50 51 50 49 52 54 55 54 55 56 58 57 54 53 55 57 60 61 62 64 67 69 72 74 76 78 80 82 84 87 88 89
58 56 55 56 58 58 52 55 55 51 51 48 48 50 51 52 54 52 53 54 56 56 56 57 59 60 60 61 62 64 67 70 73 75 76 77 78 79 82 86 88 89 91 91
60 59 58 59 60 59 57 56 55 55 53 53 51 52 52 52 53 53 55 55 56 58 61 62 60 60 61 63 65 68 71 74 75 77 76 79 81 82 83 85 87 88 89 89
59 59 61 59 59 58 58 57 57 56 56 57 56 55 56 55 53 54 55 57 58 60 61 62 64 64 63 65 67 69 72 74 75 76 77 78 80 81 82 82 83 86 88 90
59 59 57 57 56 55 56 57 59 59 59 58 57 57 56 56 55 56 59 61 63 65 66 67 66 65 64 65 66 69 71 72 73 75 77 77 78 80 82 83 85 88 90 91
60 60 61 60 57 56 57 59 60 60 62 63 64 64 64 63 62 63 64 65 66 67 66 61 59 61 65 67 68 69 71 73 74 74 76 76 78 80 83 85 88 89 90 90
67 64 60 62 63 62 62 63 64 62 63 64 66 66 67 68 68 67 67 67 66 64 62 62 63 64 65 67 70 72 72 73 74 75 77 78 80 83 84 87 89 88 86 85
68 65 62 61 57 58 58 60 64 69 71 70 71 71 71 75 75 71 65 57 56 57 60 62 64 67 69 71 73 72 72 74 75 76 78 80 82 85 86 86 84 84 85 85

GFSCGP_500_spd_093.txt.gz
Wind_Speed
55 57 56 56 54 51 50 47 44 43 40 40 38 36 33 31 29 28 25 23 22 21 20 21 21 22 22 23 23 23 23 24 23 25 25 25 25 26 26 26 27 28 29 30
55 55 52 53 54 51 47 44 46 46 45 43 41 37 37 33 31 29 28 26 25 23 23 24 24 24 25 26 27 26 27 27 27 28 27 27 28 29 30 31 33 33 34 34
51 51 53 53 49 50 47 47 49 48 46 44 42 40 39 36 34 32 30 28 27 26 25 25 25 26 26 27 28 29 30 31 31 31 30 31 32 33 35 35 37 37 38 38
49 50 49 46 48 47 46 47 48 49 46 46 45 43 44 40 37 35 32 30 29 28 28 27 27 27 27 28 30 31 32 34 34 34 34 35 35 35 37 38 40 40 41 42
51 48 48 48 47 46 48 46 46 47 47 47 46 46 46 41 39 35 33 32 31 30 29 29 30 30 29 30 30 32 33 34 35 36 37 37 38 39 39 40 41 42 44 45
48 50 47 48 48 48 48 46 47 47 48 50 48 47 47 43 39 36 35 34 33 32 32 32 32 33 32 32 32 33 33 34 35 36 37 38 39 40 41 42 43 45 46 47
50 49 50 48 50 51 49 48 50 51 51 53 50 47 45 42 39 38 37 37 36 35 34 34 34 35 34 33 34 35 35 36 37 38 39 39 40 41 42 43 45 47 48 50
49 47 51 51 50 48 49 49 51 50 50 49 47 47 47 43 41 40 39 38 38 37 36 36 36 36 35 35 36 37 38 39 40 41 41 42 43 44 45 47 49 50 51 52
48 51 47 48 49 48 50 49 48 47 49 49 50 48 47 45 42 41 39 38 38 38 38 37 37 37 36 37 37 39 40 41 41 42 43 44 45 47 48 50 51 52 53 55
48 47 49 48 49 49 48 46 46 46 48 49 50 50 48 44 39 39 38 37 37 37 37 36 36 36 36 38 39 40 41 42 42 44 45 46 47 49 50 52 54 56 57 58
48 49 51 53 51 48 48 48 48 48 47 45 46 49 44 40 39 40 39 38 37 37 37 37 37 38 39 39 40 40 42 44 45 47 48 49 50 51 53 54 54 55 56 57
54 53 52 51 49 47 46 45 44 45 45 45 45 48 47 42 40 39 38 37 37 38 40 41 41 43 43 43 44 46 48 49 50 51 52 53 54 54 54 54 54 54 55 58
56 60 59 57 55 54 51 47 44 43 47 48 46 48 43 41 41 42 42 41 40 41 42 44 45 46 47 49 50 51 51 51 53 54 54 54 55 54 53 55 57 59 59 58
52 59 64 66 60 58 59 57 54 51 52 48 49 45 45 44 42 42 42 42 43 44 45 46 48 50 51 52 52 52 52 54 54 53 54 53 53 56 58 58 56 54 54 55
58 60 54 58 55 62 64 65 58 59 57 56 54 51 49 50 52 51 52 53 52 52 51 52 54 54 54 53 54 54 54 53 53 54 55 56 57 55 53 52 54 56 58 61
63 59 56 57 56 58 59 61 70 70 64 64 66 68 64 63 60 61 58 56 56 57 58 56 56 57 57 57 58 55 54 55 56 56 56 56 53 52 53 56 59 62 64 67
64 63 63 61 63 63 67 55 63 62 64 66 68 62 61 58 57 56 55 55 55 56 57 57 58 59 59 58 56 56 56 56 56 57 56 54 54 57 60 62 65 68 70 74
50 52 56 60 68 74 56 61 59 60 60 60 61 57 60 60 56 57 59 60 60 59 59 59 59 58 57 56 56 56 57 58 57 56 56 58 60 63 65 68 71 74 78 79
44 45 53 55 58 58 56 55 60 63 59 59 55 57 59 58 61 61 62 60 57 58 57 57 57 57 55 54 56 58 59 60 59 59 62 64 67 68 70 73 76 80 81 83
48 48 49 53 56 55 45 49 50 49 46 47 52 56 58 60 62 57 56 54 54 53 52 52 52 54 56 58 59 60 61 62 63 65 67 69 71 74 75 77 80 83 85 87
54 54 52 53 56 54 52 51 53 54 43 46 45 48 50 51 49 52 54 54 54 53 53 54 55 57 58 58 60 61 62 65 68 70 73 75 76 76 78 81 82 85 85 84
61 61 61 61 60 58 55 54 54 53 52 52 51 50 52 54 53 52 53 55 56 55 56 57 55 56 58 60 63 66 67 70 72 74 75 73 76 78 80 81 82 80 80 80
64 62 60 59 55 53 55 56 57 57 58 58 58 57 56 54 54 54 54 54 54 55 54 55 57 60 62 64 66 69 72 72 74 74 74 76 76 76 77 78 78 79 81 81
64 60 62 59 56 56 58 58 59 60 59 58 57 57 58 58 57 55 53 53 53 55 56 59 62 64 67 69 70 72 73 73 70 71 72 73 74 76 77 78 80 81 83 85
65 64 62 62 60 59 59 59 59 59 58 57 57 58 59 60 60 60 60 60 62 63 64 65 66 66 67 70 70 68 66 66 69 70 72 74 75 76 77 79 81 83 85 88
62 61 62 59 57 60 59 61 62 60 60 60 61 61 62 62 62 62 63 64 66 69 70 68 68 69 67 64 63 65 66 67 69 70 73 74 76 78 80 81 81 85 88 90

GFSCGP_500_spd_096.txt.gz
Wind_Speed
50 57 52 53 54 53 51 51 51 46 45 44 41 41 40 38 34 32 29 26 24 20 18 18 17 20 19 20 21 22 22 22 22 23 24 25 25 26 26 26 27 28 28 28
51 54 50 51 54 53 57 55 54 51 46 46 47 44 42 40 36 34 30 28 25 22 21 20 19 20 21 22 24 25 25 26 25 27 27 27 28 30 31 31 31 32 33 33
50 52 53 55 57 55 55 54 53 49 46 47 47 46 44 43 36 36 32 29 27 24 22 21 22 22 23 24 25 27 28 29 29 29 30 30 31 32 34 34 35 36 37 37
46 47 49 50 52 49 53 54 52 52 49 50 50 49 45 44 41 37 34 32 29 27 25 24 24 23 25 25 26 27 29 30 30 29 32 32 33 34 36 37 38 39 40 40
47 47 48 50 49 49 51 51 51 51 51 52 52 52 48 48 44 40 37 34 31 29 27 27 26 26 27 27 29 30 31 32 33 33 34 35 37 37 38 39 40 41 42 43
46 45 46 47 47 47 51 49 50 51 52 56 54 54 53 51 47 43 38 36 34 32 30 31 29 29 30 30 31 32 33 33 34 35 36 36 38 39 39 40 42 43 43 45
48 49 47 48 49 49 50 49 50 52 57 60 57 58 56 52 46 40 40 38 36 35 33 34 32 33 33 33 33 34 35 36 36 37 37 38 39 40 40 41 42 43 44 46
48 50 48 49 51 48 50 51 53 53 55 57 55 58 55 49 45 43 42 40 39 37 37 36 36 36 36 35 36 37 37 38 39 40 40 40 40 41 42 44 45 46 46 48
51 49 48 49 49 47 50 52 50 52 53 54 55 56 53 50 49 45 42 40 40 39 39 39 38 38 37 37 37 38 40 41 43 43 42 42 42 42 43 44 45 47 48 50
49 48 47 47 50 54 47 46 47 50 50 52 54 54 53 49 45 43 43 42 41 41 40 39 39 39 38 38 38 39 40 41 42 41 41 42 43 44 45 46 48 50 52 53
51 48 49 47 48 49 53 52 48 49 48 50 52 53 49 44 43 43 43 43 41 40 40 38 38 38 38 39 39 40 40 40 41 42 43 44 46 47 49 50 51 52 53 53
56 54 50 48 49 48 48 50 47 48 49 51 50 50 48 44 41 41 39 38 37 38 38 38 38 38 38 39 38 38 39 42 44 45 45 47 49 49 50 51 53 53 53 53
59 59 56 52 50 51 52 49 48 48 50 52 50 52 46 44 41 39 37 37 38 38 39 39 40 41 40 39 40 42 44 44 44 45 47 49 50 52 54 54 52 52 55 58
54 55 58 59 56 53 50 52 50 48 50 50 52 48 44 46 41 39 36 38 40 42 44 43 42 41 42 44 45 45 45 46 48 50 51 52 52 53 52 52 55 56 57 57
65 59 57 59 59 52 52 51 50 51 48 52 55 51 46 44 45 42 43 43 44 45 43 44 45 46 48 49 51 51 53 54 55 56 55 53 54 54 54 55 56 56 55 53
49 60 68 60 59 60 63 65 60 59 61 59 56 55 54 55 56 58 56 52 50 49 49 51 53 54 55 56 57 57 58 58 57 55 54 54 54 54 54 55 55 54 55 56
53 52 51 54 62 60 59 60 64 67 66 63 67 58 61 66 67 64 61 58 58 60 60 58 56 55 55 56 56 56 55 55 54 54 54 55 54 54 55 56 57 57 59 62
58 55 55 55 56 63 48 52 53 55 63 69 71 64 70 70 65 66 65 63 64 62 59 57 56 55 56 56 56 56 54 53 54 55 53 52 55 56 57 58 60 62 64 67
62 62 62 63 60 58 49 48 51 55 50 51 53 51 54 58 64 67 65 62 57 55 55 55 55 55 56 54 53 54 57 55 51 52 55 57 57 58 59 61 64 66 69 73
52 56 65 62 61 59 45 51 51 52 56 53 57 56 59 59 60 57 56 53 52 52 53 55 57 58 56 55 55 53 51 52 54 56 58 57 58 60 62 65 69 72 75 78
49 54 56 53 51 48 47 47 45 51 41 41 39 41 46 49 47 47 51 53 53 55 55 54 54 53 53 53 54 55 55 56 59 57 57 59 60 63 68 71 76 78 79 79
49 47 49 49 47 46 46 46 44 41 42 45 46 44 44 43 42 42 44 46 49 50 51 52 52 51 53 55 56 57 59 59 58 59 60 62 68 70 75 76 78 80 82 83
55 56 54 51 47 47 49 48 47 46 47 48 50 49 46 46 46 45 46 47 49 51 53 53 52 53 54 56 58 58 57 59 60 63 67 69 74 75 76 77 80 81 81 81
56 57 57 52 50 51 52 53 54 52 50 49 50 52 53 52 51 51 51 51 51 52 53 54 55 54 52 53 55 57 60 63 66 70 71 72 73 74 75 75 76 77 78 79
63 60 57 56 56 57 56 57 58 56 55 54 54 55 56 55 54 53 52 50 49 51 52 52 53 54 55 57 59 61 64 67 70 71 72 72 71 70 71 72 74 76 79 81
57 57 57 56 59 59 56 57 59 58 58 59 58 57 57 57 57 56 55 55 54 54 54 55 56 57 60 61 63 66 69 68 67 67 67 68 68 69 70 73 76 78 78 80

GFSCGP_500_spd_099.txt.gz
Wind_Speed
49 46 34 63 50 49 52 50 48 48 50 48 44 44 41 40 38 35 33 31 28 25 22 21 21 19 20 20 20 19 20 22 22 21 22 23 24 25 25 26 26 26 26 26
48 42 46 48 43 45 50 51 52 51 50 48 48 45 45 43 39 38 35 33 30 27 26 23 22 21 21 21 21 23 23 24 25 25 25 26 27 29 30 30 30 31 32 31
47 39 53 44 44 46 49 52 55 54 51 50 49 50 49 46 42 39 38 36 32 29 27 24 22 22 22 21 22 23 24 25 26 28 29 29 29 32 33 33 33 33 34 35
45 43 52 45 44 46 49 54 54 53 51 50 50 52 50 48 46 42 43 37 34 30 28 26 25 24 24 23 23 24 24 26 26 28 30 31 31 32 34 35 36 37 37 38
48 47 46 56 46 46 48 52 52 49 50 52 52 55 51 51 49 45 42 39 35 33 30 28 28 27 26 26 26 26 27 27 29 28 30 32 33 35 35 37 38 39 39 40
44 40 41 48 46 46 47 51 51 50 51 56 55 57 55 53 49 46 46 41 36 35 32 31 30 30 29 28 28 30 30 30 30 32 33 34 36 37 38 38 39 40 41 41
44 46 44 46 45 47 50 47 51 52 55 58 58 60 58 55 51 48 45 42 38 37 36 34 32 32 32 31 31 32 33 33 34 34 35 36 37 38 38 39 40 40 42 43
43 53 48 48 47 47 48 54 60 59 59 59 58 63 60 55 50 47 44 42 42 40 39 38 36 35 35 34 34 34 35 36 37 37 37 38 39 40 40 42 43 43 43 43
43 46 46 44 44 46 51 53 50 51 54 56 58 59 58 54 50 47 45 45 43 41 42 41 39 38 37 36 36 37 37 38 38 39 40 40 41 41 41 41 41 43 44 45
46 45 45 45 44 47 48 46 49 51 54 57 58 58 57 52 50 45 44 43 44 43 42 41 40 40 40 38 38 39 39 39 40 41 42 41 40 40 40 41 44 46 47 49
47 46 44 44 48 45 48 50 51 50 50 53 60 57 51 46 47 45 43 43 44 45 44 43 41 40 39 39 39 40 40 40 41 41 41 41 40 40 41 44 46 48 49 51
50 47 46 48 42 44 46 46 46 48 49 51 51 52 49 44 42 43 42 41 41 41 41 40 40 40 39 39 40 39 40 41 42 41 40 40 41 42 43 44 46 48 50 53
53 52 46 50 50 50 48 48 47 49 49 47 45 49 44 44 40 39 40 38 38 38 38 39 38 38 39 39 39 40 41 41 41 41 42 43 44 45 46 48 49 51 53 52
52 54 55 50 47 52 52 49 44 44 48 50 54 49 44 43 40 39 40 40 39 39 39 40 41 40 39 39 39 40 41 41 44 45 46 49 50 52 53 53 52 52 52 52
61 59 55 53 56 50 51 47 50 49 46 48 49 51 48 49 48 45 45 45 44 42 42 41 41 41 42 41 41 43 44 46 48 51 53 57 58 57 54 52 51 51 53 55
55 51 54 54 56 60 63 58 53 53 57 60 54 53 49 52 52 51 48 46 45 43 43 43 43 44 44 44 46 53 55 54 58 61 58 56 55 54 53 53 52 54 54 53
45 48 50 57 49 59 65 64 63 65 61 60 61 53 54 55 52 51 50 48 46 47 49 50 51 53 54 55 55 56 56 55 54 53 53 55 55 54 54 53 54 51 54 55
52 48 49 49 48 53 54 60 57 56 61 61 60 58 58 55 57 59 58 56 54 56 57 59 59 59 58 56 55 56 56 55 55 55 55 55 55 55 56 52 53 54 55 54
53 48 48 51 54 51 45 45 52 64 63 56 55 51 57 62 67 69 64 63 64 64 64 61 59 60 61 60 58 56 55 55 55 55 57 56 54 52 52 54 55 54 55 57
60 60 60 59 59 54 40 44 45 49 49 44 52 56 57 55 58 58 61 63 59 56 56 56 56 55 57 57 55 54 54 56 58 56 53 52 53 55 56 56 56 56 58 60
56 61 61 60 64 50 46 49 52 54 44 46 44 48 53 58 56 56 58 60 60 60 60 55 55 57 56 54 54 56 56 55 55 52 53 54 55 57 58 57 59 60 62 66
48 50 54 58 58 53 51 51 52 44 44 42 40 37 42 43 44 47 50 52 51 52 50 49 48 49 52 52 50 50 51 51 52 53 54 56 57 58 58 60 62 64 68 74
48 49 48 46 44 45 47 48 48 41 40 38 38 36 33 35 37 39 40 42 43 43 42 43 45 46 47 50 52 52 51 51 54 55 57 58 58 59 60 63 67 73 75 74
46 48 44 41 41 41 45 45 46 46 44 43 42 42 42 41 38 41 43 43 43 43 44 45 47 49 51 51 51 52 54 55 55 57 58 59 60 62 65 68 73 74 73 76
55 52 52 51 47 49 50 52 53 51 48 47 49 50 50 49 47 45 44 44 45 47 48 49 50 51 53 53 53 53 52 52 54 56 59 63 67 69 70 72 73 75 77 78
57 55 54 53 52 50 51 54 55 54 55 54 53 52 52 52 50 50 49 48 47 47 47 47 48 49 51 52 52 52 54 58 61 63 66 68 70 72 74 75 75 75 75 75

GFSCGP_500_spd_102.txt.gz
Wind_Speed
48 44 36 36 26 38 57 56 55 54 52 50 46 45 43 41 40 36 35 33 30 27 26 25 24 23 22 22 21 21 22 21 20 21 21 22 22 23 24 24 24 25 26 28
53 44 41 40 27 42 55 55 56 54 52 51 50 48 46 45 42 40 40 37 33 31 30 27 26 25 24 23 22 22 22 23 23 24 24 25 26 26 27 28 29 29 29 30
52 44 48 43 37 39 58 56 54 55 53 53 53 53 52 50 47 45 42 40 36 34 33 29 29 28 27 25 24 24 23 25 26 27 27 28 28 29 29 30 31 32 32 33
48 47 44 39 43 41 59 55 52 55 56 57 55 56 53 50 49 47 45 43 38 36 34 32 31 31 29 27 26 25 24 25 27 28 28 30 29 30 30 31 32 32 33 34
47 46 46 44 46 48 54 49 47 49 51 55 56 58 55 55 53 49 46 42 39 39 37 36 33 33 31 29 27 27 25 26 27 28 29 30 31 32 31 32 33 34 35 36
42 40 43 42 46 51 42 42 45 48 52 58 57 58 58 56 51 46 47 45 43 40 39 38 36 34 32 31 30 29 29 28 28 30 31 31 32 35 35 35 35 35 36 38
46 42 42 44 44 54 56 41 46 51 56 60 58 60 60 57 54 50 50 47 44 42 41 41 39 37 36 34 32 32 32 32 31 32 33 33 34 36 37 38 39 38 38 39
48 48 48 48 50 47 58 48 52 57 58 59 60 66 64 56 54 50 48 48 47 44 43 42 41 40 39 37 35 35 35 35 35 36 36 36 36 36 38 40 42 41 40 39
46 44 42 48 46 47 49 57 46 49 54 55 59 59 58 54 52 48 46 46 44 45 44 43 44 43 42 41 39 39 39 38 38 38 37 37 38 39 41 42 41 41 41 42
45 44 43 46 45 44 50 46 47 51 54 55 58 60 61 55 51 47 46 45 44 45 46 46 45 45 44 43 42 42 41 40 39 39 38 39 40 42 42 42 41 41 42 44
49 45 45 44 51 46 47 53 51 47 50 51 55 60 57 52 48 45 44 45 46 46 46 46 48 46 45 45 44 42 41 40 40 40 40 42 43 43 42 41 42 44 44 46
51 49 45 43 45 46 48 42 43 46 49 51 52 52 52 52 46 41 40 42 43 46 47 46 45 44 43 43 43 42 41 40 40 41 43 44 44 42 42 42 43 44 45 49
51 51 50 48 47 46 48 51 44 45 45 48 48 53 49 49 45 44 42 40 39 40 42 44 44 43 42 42 42 41 41 42 42 42 44 43 42 42 41 44 46 48 52 56
48 51 51 49 42 43 46 49 48 45 47 48 50 48 44 42 40 35 35 38 39 40 41 42 41 41 41 41 42 42 43 44 42 43 43 42 43 42 45 48 52 58 56 56
51 53 50 50 47 43 42 41 46 46 45 45 48 51 42 41 38 37 38 38 40 40 40 40 40 41 42 43 42 43 43 42 42 45 45 44 46 52 56 56 56 57 56 56
55 55 52 52 51 51 51 44 46 53 54 57 59 58 48 44 48 49 49 48 45 43 43 43 44 47 48 48 46 44 42 42 44 44 46 54 59 55 55 55 55 55 56 56
54 53 52 52 49 48 50 47 52 51 53 53 57 46 49 52 52 51 49 46 44 42 42 44 46 47 46 45 45 46 46 46 50 55 58 57 56 56 55 56 56 57 58 59
49 52 53 54 53 55 46 43 49 50 50 50 50 49 49 53 55 54 51 47 45 43 46 46 47 48 48 49 52 54 56 59 60 61 63 60 60 59 58 58 58 58 60 59
52 48 51 54 55 56 55 48 46 56 52 52 47 48 54 57 61 63 58 55 54 55 58 55 54 55 55 58 60 60 61 62 62 61 60 58 57 58 59 58 59 58 57 56
57 56 51 57 58 59 46 51 51 46 50 39 47 49 53 54 59 51 57 59 60 61 64 63 62 63 65 66 65 66 68 64 62 59 58 58 58 58 60 59 58 56 56 60
55 58 60 60 62 55 50 50 50 50 44 44 38 43 50 56 60 62 63 61 60 60 61 63 65 67 67 67 67 64 61 58 56 57 57 56 59 59 57 56 55 56 60 63
48 56 56 58 60 53 52 55 54 46 46 49 49 47 50 51 55 55 57 61 61 61 61 60 59 57 57 59 61 61 59 60 60 58 57 56 53 54 54 56 56 59 62 63
54 51 50 51 47 47 49 51 54 51 51 50 48 48 49 53 54 52 49 51 49 49 51 52 51 49 52 53 54 53 52 53 53 53 53 54 54 53 55 56 59 61 63 65
50 50 51 50 45 48 48 46 47 49 49 48 47 47 46 42 42 42 42 42 42 39 39 40 43 46 46 46 44 45 46 47 49 51 54 53 53 54 58 61 62 63 65 67
43 43 44 42 41 42 44 47 49 45 43 42 42 42 43 42 41 41 43 43 41 40 40 42 44 46 47 47 48 49 49 51 51 52 53 54 56 58 59 60 63 67 71 73
50 49 48 49 47 46 47 49 49 47 46 47 46 46 46 48 48 47 47 48 48 48 47 47 48 47 48 48 48 48 47 49 51 52 52 55 56 58 62 65 67 69 73 77

GFSCGP_500_spd_105.txt.gz
Wind_Speed
51 54 46 43 45 38 40 29 32 43 59 57 53 48 46 46 45 44 40 36 33 33 32 28 27 25 24 24 24 23 22 21 20 20 21 21 22 21 22 23 23 24 24 24
52 50 48 45 46 35 33 32 34 54 60 58 53 50 50 51 48 44 41 39 37 37 32 31 29 26 26 25 26 25 24 23 24 23 23 23 24 24 24 25 26 26 27 27
48 54 51 49 50 37 31 34 31 59 60 58 55 54 55 54 52 50 48 43 43 39 37 35 31 30 29 28 28 27 26 25 26 27 25 25 26 27 26 27 27 27 28 29
52 56 53 50 52 45 32 29 41 57 52 59 58 59 58 56 54 52 47 46 42 40 37 35 32 32 32 31 30 28 28 28 28 28 27 27 27 27 28 28 29 28 30 31
52 59 57 50 51 55 35 39 49 57 55 53 59 61 60 59 56 53 48 46 43 41 40 38 36 37 36 33 32 31 30 29 30 30 29 28 28 29 30 30 30 31 33 34
52 52 54 53 44 47 47 48 50 52 57 60 59 61 61 60 56 51 48 46 43 43 42 41 39 39 38 36 34 33 32 32 32 32 32 30 30 31 33 32 32 34 35 36
53 55 61 46 46 44 43 47 48 51 59 63 62 65 66 62 59 55 51 49 49 48 46 42 42 42 40 38 38 37 35 33 34 34 34 33 33 34 35 34 35 36 38 40
53 58 60 54 44 40 46 50 50 53 55 59 69 71 69 64 60 56 52 51 50 49 46 44 44 44 44 42 40 39 39 36 35 36 36 36 36 37 37 37 38 39 41 43
54 57 54 51 45 46 49 52 49 54 53 59 64 69 64 59 57 53 51 50 49 46 45 44 45 45 46 44 43 42 42 40 38 38 39 40 39 39 40 40 42 43 44 44
51 54 53 49 46 49 51 47 52 56 53 56 63 66 66 58 54 51 51 47 46 46 45 45 47 47 48 48 46 45 44 43 42 42 42 42 42 42 42 43 44 46 46 44
53 53 53 46 47 46 51 54 54 51 56 56 58 62 55 53 46 47 47 46 44 45 46 47 47 49 50 50 48 47 46 44 44 44 45 44 43 44 45 46 47 46 44 42
54 55 55 48 46 45 48 49 46 51 54 53 60 60 56 48 42 41 42 42 44 46 47 48 47 47 47 48 47 47 47 46 45 46 46 45 46 45 48 48 46 43 42 44
55 58 56 51 49 45 46 44 47 48 47 51 51 49 48 42 38 38 40 39 38 39 44 47 47 46 47 48 47 47 47 47 47 47 47 47 48 49 51 48 45 43 43 45
52 52 54 52 49 47 51 48 47 45 45 49 50 45 42 39 35 34 35 33 40 45 46 45 45 46 45 45 46 46 46 46 47 47 48 49 50 51 49 45 44 44 46 52
50 52 51 50 46 46 43 39 39 43 45 51 34 45 36 33 33 36 37 37 41 44 48 46 44 43 43 44 44 44 44 45 46 47 49 49 49 48 46 44 45 50 54 54
51 53 50 51 49 47 48 50 45 45 41 39 47 45 39 39 42 41 39 39 41 43 44 43 42 41 40 41 43 45 47 48 49 49 48 49 49 46 44 48 53 56 58 61
52 50 52 53 52 52 54 51 49 44 41 34 37 28 38 43 41 40 42 46 45 42 41 41 42 43 44 46 48 49 50 51 50 48 45 43 44 47 52 57 61 62 64 64
49 49 47 51 48 52 47 46 43 43 40 37 37 38 37 41 45 50 47 44 43 44 47 46 46 47 46 47 47 48 48 50 49 48 49 52 57 60 62 64 65 63 65 65
50 52 53 54 55 53 52 44 42 42 42 39 36 38 37 40 46 48 51 53 51 48 46 47 46 45 47 48 50 51 52 53 57 58 58 61 63 65 66 66 69 68 65 65
46 51 50 58 58 58 46 50 49 47 49 37 42 40 44 49 54 41 47 52 53 53 55 57 57 58 58 58 59 60 61 62 61 59 63 67 67 68 68 64 63 65 66 65
53 54 53 55 58 59 56 52 53 52 40 42 44 44 43 44 44 48 51 52 54 55 56 58 58 57 58 59 61 64 64 63 65 67 68 69 67 64 62 61 64 66 66 63
47 53 56 59 59 56 52 55 55 47 45 49 47 46 47 48 48 48 49 51 55 57 57 58 60 60 60 60 61 61 60 61 64 65 66 64 63 64 66 68 68 64 59 56
46 44 47 53 49 47 50 51 52 48 47 47 50 49 49 50 53 53 53 54 53 52 50 49 49 50 54 58 61 62 62 61 61 62 64 66 68 68 68 63 59 58 56 63
42 43 44 43 44 46 53 55 54 50 49 48 51 51 49 48 49 52 55 55 55 52 51 49 47 49 49 48 50 52 52 54 58 60 60 61 59 56 53 53 54 55 61 56
44 45 47 47 47 47 49 50 49 46 46 47 45 42 45 47 47 48 50 53 52 51 51 46 45 45 44 46 46 45 46 48 49 50 50 50 51 52 51 51 55 54 57 59
44 39 43 47 49 50 50 50 50 50 50 48 47 45 45 44 44 45 47 48 49 50 49 48 48 47 47 46 47 48 50 50 50 50 51 51 51 51 51 51 55 58 61 64

GFSCGP_500_spd_108.txt.gz
Wind_Speed
48 48 53 43 35 37 36 35 41 35 29 40 42 42 46 48 47 43 41 41 39 35 37 32 30 28 27 27 27 27 26 25 22 21 21 21 20 19 21 22 21 22 22 23
51 47 45 50 46 39 39 38 38 37 42 34 44 44 50 53 50 48 45 45 43 41 37 35 33 31 29 29 29 28 27 25 26 25 24 23 23 22 23 24 25 24 25 25
48 46 44 46 49 50 39 32 37 40 43 37 41 48 53 55 53 52 49 49 49 45 40 37 36 35 34 31 30 31 30 29 28 27 26 25 25 26 26 26 26 26 25 26
53 48 44 43 44 46 45 38 40 42 43 44 42 51 54 57 56 54 52 52 49 47 42 40 37 35 35 35 34 32 31 30 29 29 28 27 28 27 28 27 27 26 27 28
50 53 45 41 42 45 44 48 46 46 46 42 44 52 54 61 61 57 54 53 49 46 43 42 41 40 39 36 34 33 33 31 31 31 30 28 28 29 30 28 29 29 29 30
51 49 51 45 45 49 52 43 50 48 52 43 38 46 49 62 59 56 53 52 50 47 45 45 44 42 39 37 36 36 34 33 34 34 34 31 31 32 31 31 32 31 32 33
53 51 52 52 50 49 49 52 47 51 49 47 43 49 43 58 61 56 54 53 52 51 50 49 47 43 42 40 40 39 38 36 37 37 37 36 34 34 33 33 35 34 35 37
54 51 49 53 57 51 53 55 54 48 57 53 48 39 37 43 66 55 53 53 52 51 49 47 45 44 44 43 43 42 42 40 39 39 40 39 38 36 36 37 37 38 40 41
53 52 52 51 52 52 55 56 48 46 46 50 46 35 37 36 51 59 52 51 50 52 49 46 45 45 45 45 45 45 45 43 43 41 41 41 41 40 39 40 40 41 43 45
53 49 48 49 50 50 50 47 49 50 56 54 50 44 41 42 42 56 57 54 47 50 49 47 46 47 47 48 49 48 47 45 45 44 44 44 44 43 43 42 43 45 47 48
54 50 50 50 52 48 48 51 53 52 49 48 49 47 42 44 42 45 55 48 47 49 49 49 49 49 49 49 49 49 49 49 48 47 47 45 44 44 44 45 46 48 50 51
54 54 51 48 47 44 43 44 45 46 44 50 48 45 47 47 44 40 44 42 43 45 49 51 51 51 51 50 50 50 50 49 49 49 47 46 46 45 47 48 50 51 52 53
51 55 56 54 52 48 45 45 47 47 48 48 46 41 42 45 43 38 37 40 40 40 46 48 49 50 50 50 48 47 47 47 47 48 49 49 49 49 50 51 52 53 54 50
50 48 52 55 53 51 48 48 49 49 50 49 49 48 43 40 38 37 37 34 34 36 39 41 43 45 47 48 48 48 50 49 50 50 51 51 51 51 52 53 54 53 50 46
57 56 53 52 55 50 47 42 46 47 45 47 40 46 39 31 32 33 34 35 34 35 33 39 43 44 43 43 45 48 48 48 50 50 51 51 53 54 54 53 51 49 48 48
60 58 54 57 53 56 55 46 44 51 49 44 43 41 41 35 29 34 34 37 38 39 37 38 38 39 41 46 48 47 48 49 49 50 51 52 52 54 54 53 51 50 48 47
58 54 53 56 54 55 57 54 53 51 50 43 42 30 32 30 33 36 40 42 43 42 42 44 45 46 47 47 48 48 50 50 50 49 50 52 52 51 51 49 49 48 50 53
56 55 52 50 51 56 48 50 51 50 51 46 38 37 35 34 30 35 44 41 44 42 46 45 43 44 44 45 45 47 47 48 49 51 51 52 53 50 50 51 52 55 58 61
52 53 54 55 54 49 47 43 44 49 47 42 39 39 42 40 41 37 34 40 46 43 39 41 47 49 50 51 53 54 54 55 56 55 50 48 50 54 55 55 60 62 63 66
49 48 50 53 54 54 42 45 43 44 47 39 41 42 43 43 43 33 33 39 42 46 51 52 50 47 48 48 53 56 56 57 56 55 56 58 60 63 64 66 68 68 70 72
44 48 49 51 54 48 50 47 47 47 35 35 40 44 45 44 41 42 40 37 41 43 47 51 54 56 57 58 58 58 58 58 59 62 63 62 62 65 67 68 69 72 73 73
49 47 46 46 47 45 47 51 49 43 42 45 44 45 45 45 45 46 46 47 47 46 46 48 53 54 56 58 59 59 58 58 61 63 65 67 67 65 65 66 68 68 68 69
43 48 50 51 47 48 46 44 44 41 42 44 45 44 45 48 50 51 53 54 53 53 53 52 50 48 49 51 53 54 54 57 61 64 64 65 65 65 66 66 66 68 70 73
36 37 42 43 44 45 48 50 49 49 47 47 49 52 53 51 51 53 53 56 56 56 56 56 56 54 52 51 50 50 50 51 54 57 60 64 66 67 68 69 70 70 66 59
40 39 38 38 42 43 43 43 42 44 46 48 50 51 50 51 52 51 52 54 54 55 56 56 56 55 54 54 53 52 51 50 51 53 55 56 56 57 59 59 56 55 55 55
46 42 40 41 40 40 44 44 45 45 45 46 47 46 48 50 50 49 47 47 48 50 53 53 51 50 48 47 48 49 50 51 51 52 52 53 54 55 55 56 55 54 52 54

GFSCGP_500_spd_111.txt.gz
Wind_Speed
51 50 53 50 35 35 36 33 28 24 30 33 34 37 44 44 46 44 42 41 39 37 41 37 34 31 29 28 28 28 29 29 27 25 24 22 22 21 20 21 21 20 21 21
53 53 54 50 49 40 34 33 31 32 33 35 33 23 33 47 47 48 46 45 43 43 43 39 35 32 31 32 31 31 32 32 31 28 28 26 24 24 25 25 24 23 23 24
50 49 48 49 45 45 45 40 33 34 37 36 34 39 25 36 49 48 52 48 47 47 46 43 38 36 37 34 34 34 34 34 33 32 30 28 27 28 27 26 26 25 25 27
49 46 46 45 42 42 43 43 46 34 38 36 35 42 34 27 43 49 51 50 49 49 48 46 41 38 36 37 38 36 35 34 33 32 31 30 29 29 29 27 26 26 27 29
54 50 47 48 43 40 41 40 41 46 44 38 35 43 34 33 33 50 54 55 51 51 50 48 44 42 42 42 39 38 37 35 35 35 34 32 30 30 31 29 28 29 30 30
58 53 51 47 48 46 41 40 41 42 44 46 40 42 39 27 29 40 50 60 55 51 50 49 49 48 45 42 40 39 39 37 37 37 35 34 33 33 34 32 31 32 32 33
54 52 50 50 50 52 49 43 43 44 45 42 38 48 39 31 27 34 45 58 58 51 51 52 53 49 45 43 42 41 41 40 40 39 38 37 36 36 36 34 34 36 36 36
53 49 48 50 52 50 53 54 47 44 42 44 46 37 38 35 38 41 40 52 59 53 49 50 50 49 46 45 46 46 45 43 43 42 41 40 40 39 40 37 37 38 40 40
53 54 51 50 51 51 53 53 53 51 49 48 49 45 43 43 38 32 36 41 53 51 48 47 50 48 48 47 48 47 48 47 45 45 45 44 43 44 42 41 40 40 42 42
56 52 52 52 52 53 51 49 48 49 50 52 53 50 45 32 31 33 33 35 47 50 47 48 51 51 50 50 50 50 50 49 48 46 48 48 47 46 45 45 43 42 43 45
61 56 53 52 56 53 48 51 52 51 50 51 51 51 49 41 41 41 42 40 39 51 53 49 52 54 54 54 51 51 51 51 51 50 49 50 49 48 47 47 46 45 46 48
49 47 47 48 43 45 46 43 43 45 44 45 43 45 49 46 40 43 41 42 42 36 48 57 51 53 55 56 55 54 54 53 51 50 50 50 49 48 48 48 49 49 50 52
48 49 44 44 45 46 48 47 48 46 46 47 48 45 42 45 41 44 39 33 35 32 37 48 47 49 54 56 56 57 55 54 53 52 50 49 48 48 49 50 51 52 52 54
44 45 44 44 41 42 43 42 43 43 48 44 46 41 48 42 38 34 36 33 36 36 33 39 46 46 49 50 52 54 54 53 51 50 51 51 50 50 51 52 53 54 54 56
47 48 45 43 45 46 45 45 45 45 47 47 38 41 41 37 37 38 39 41 41 39 40 38 41 50 50 48 50 51 51 50 52 52 51 51 51 52 53 54 54 54 55 55
52 54 52 50 50 48 47 45 47 50 52 50 40 39 42 42 36 33 35 40 40 41 40 45 45 47 50 51 51 49 51 51 50 47 48 50 51 52 51 53 53 53 51 51
52 58 57 57 54 54 55 46 44 45 52 52 51 30 38 39 34 34 38 40 39 40 41 44 45 44 43 48 51 51 50 49 49 49 49 50 51 52 54 56 55 52 51 48
55 56 55 55 54 57 56 51 46 48 48 51 53 46 45 40 38 37 35 35 40 42 43 43 44 46 48 49 49 49 50 52 53 52 51 50 49 48 49 48 47 50 53 53
49 50 53 55 58 60 58 53 45 48 47 45 50 53 49 44 45 41 34 37 33 39 43 42 46 45 48 49 49 51 52 51 49 49 50 51 49 47 47 48 48 50 52 53
47 47 49 54 58 62 46 47 45 42 44 39 47 54 51 50 49 41 38 39 39 39 41 44 46 47 46 49 52 54 54 55 52 52 53 56 55 54 56 56 54 58 63 67
47 48 49 49 50 54 49 47 45 49 33 37 41 51 52 49 46 43 39 36 35 36 37 40 42 46 51 53 52 51 52 53 54 55 53 54 55 57 59 60 61 64 67 67
40 41 44 46 49 56 49 43 46 41 34 39 40 36 34 38 39 43 42 39 39 40 40 41 41 41 44 46 48 50 53 58 60 61 63 64 63 65 67 66 66 67 67 66
43 44 42 41 42 39 43 45 43 39 40 45 46 42 45 41 41 42 43 45 46 46 46 46 47 47 48 47 46 46 47 51 56 58 59 60 60 60 62 64 66 66 67 68
37 40 43 44 46 47 46 44 43 42 38 40 42 42 44 46 48 51 51 51 50 50 50 49 50 51 52 52 51 51 51 50 50 51 52 52 53 54 57 59 62 64 65 67
38 38 41 44 46 46 49 50 49 47 48 48 49 48 50 50 51 52 54 54 54 54 53 53 53 53 53 53 53 53 52 52 52 52 52 53 54 56 58 59 59 57 58 58
43 44 42 41 40 40 41 43 45 44 43 44 45 48 50 52 52 52 50 51 52 53 53 53 53 54 53 52 53 53 52 52 52 52 53 53 52 53 55 57 58 57 57 57

GFSCGP_500_spd_114.txt.gz
Wind_Speed
58 56 51 47 47 45 36 32 33 28 32 30 24 34 33 40 41 39 39 39 38 36 39 37 35 33 31 28 26 26 27 29 28 26 25 24 25 23 22 22 22 23 25 25
60 57 50 50 52 44 41 39 37 35 37 30 25 21 31 35 38 43 41 43 41 41 42 39 38 36 33 32 30 31 31 32 32 31 31 30 30 27 27 26 26 28 29 27
57 55 51 51 51 46 42 36 33 35 34 36 31 27 21 23 20 34 44 42 45 43 45 43 42 41 39 36 34 35 36 36 36 35 35 33 32 30 30 31 31 31 29 30
54 55 51 49 49 48 51 49 42 31 33 38 35 37 28 24 24 25 27 41 44 48 49 48 46 44 40 38 41 40 39 37 37 37 36 35 35 34 34 35 34 33 32 32
56 54 50 47 46 46 48 46 37 42 44 40 34 42 27 24 24 25 24 22 33 49 53 52 49 45 45 47 44 43 42 40 38 37 38 38 37 38 39 37 36 35 35 35
57 55 52 49 47 46 45 43 39 40 45 51 44 44 37 24 19 23 24 26 31 39 51 54 52 50 50 50 48 45 42 42 42 41 41 41 41 40 41 39 38 37 37 36
58 57 55 54 52 49 48 46 45 43 45 50 44 45 50 36 31 30 25 21 23 32 48 55 55 55 52 50 50 48 46 46 46 45 45 44 44 43 43 41 39 38 40 40
56 55 56 54 53 49 48 47 48 48 47 45 45 45 46 33 25 28 28 29 29 30 35 52 59 58 56 51 52 50 48 48 49 49 47 46 46 45 45 43 43 41 41 43
52 55 55 56 54 53 53 52 51 52 51 49 52 51 46 41 40 36 34 35 35 35 32 44 55 56 57 53 52 52 51 50 51 51 51 49 48 47 47 47 47 45 43 43
56 61 60 58 61 61 55 52 51 51 51 51 49 49 49 48 43 39 34 31 32 34 32 35 48 54 56 55 55 55 54 53 53 54 53 53 52 51 49 50 49 49 48 47
63 60 58 63 58 56 56 56 55 54 54 54 50 49 45 45 48 47 47 41 37 36 36 37 36 49 55 57 57 56 55 56 55 55 56 56 54 52 52 53 52 52 52 49
65 64 62 57 58 56 52 51 52 56 54 52 50 46 44 45 46 48 47 47 42 39 41 43 42 39 55 54 57 55 58 59 57 57 57 57 57 56 55 54 54 54 53 52
61 62 59 58 58 61 61 59 56 50 49 48 50 45 44 45 46 47 47 46 45 38 38 41 44 44 45 57 58 56 60 61 61 61 59 58 59 58 56 56 56 55 55 55
54 53 52 52 49 45 44 42 38 38 42 41 42 42 43 39 42 40 42 41 40 41 40 42 44 44 44 48 61 65 57 58 59 61 60 61 61 60 57 55 55 57 56 56
57 53 51 51 49 47 43 40 40 44 45 47 45 46 44 46 41 44 47 47 45 44 42 42 42 44 43 42 45 63 66 58 57 59 58 59 59 57 56 56 56 57 58 58
50 51 51 52 48 48 49 50 51 48 48 50 50 51 44 46 47 46 46 46 46 45 45 45 43 44 44 44 45 46 59 63 60 59 58 57 57 58 57 56 56 57 57 57
47 48 47 45 47 48 53 49 51 49 50 48 51 45 44 47 49 48 46 45 45 43 43 44 43 43 45 47 46 48 49 57 63 55 53 55 57 56 55 54 53 53 52 51
45 46 46 45 45 49 41 47 46 47 46 47 49 53 55 46 49 52 47 43 44 43 42 42 41 40 41 46 50 50 50 52 55 57 57 55 52 51 50 47 49 50 49 49
42 48 50 50 51 46 46 48 51 51 48 47 46 43 43 44 49 51 48 47 45 43 40 40 43 43 45 47 48 51 53 52 50 51 49 50 51 53 54 52 53 53 54 51
43 45 46 46 45 44 47 50 52 49 40 42 46 45 49 49 53 41 44 46 50 46 41 40 41 40 44 47 49 51 54 57 55 54 58 61 60 57 53 52 52 53 52 50
45 49 46 45 44 46 48 51 51 48 38 38 38 43 47 51 49 45 44 45 48 49 46 44 44 45 46 45 47 50 53 54 56 58 60 60 60 59 59 59 59 60 58 58
42 44 48 48 46 48 49 54 49 32 32 40 40 40 45 48 46 41 41 41 43 45 44 42 42 45 44 44 43 45 46 48 51 54 56 57 58 59 59 59 60 60 61 65
48 46 45 47 49 49 50 50 47 37 38 36 37 40 40 37 45 45 33 32 36 41 41 42 41 41 45 45 45 45 45 44 45 46 47 48 49 51 55 59 63 65 65 65
48 47 49 46 47 51 52 47 45 43 42 40 41 44 44 46 46 42 38 40 41 42 42 43 45 48 48 48 49 49 50 50 52 53 53 54 55 55 56 56 56 56 57 59
44 47 49 50 53 51 47 48 47 45 41 40 43 43 44 44 47 52 52 51 52 53 52 51 53 54 54 53 52 52 52 52 53 53 53 53 54 55 55 56 58 59 61 63
44 43 49 51 45 48 50 51 50 48 46 48 49 48 50 52 52 51 51 51 53 54 55 54 54 55 54 53 52 51 51 51 52 53 53 53 54 54 54 56 58 60 61 62

GFSCGP_500_spd_117.txt.gz
Wind_Speed
60 58 58 52 49 46 44 40 38 35 31 31 29 20 28 38 39 37 33 34 33 31 35 33 31 30 29 26 26 25 24 25 24 25 24 25 26 25 24 23 23 24 25 27
61 59 55 52 49 50 46 45 36 39 37 33 30 20 18 24 29 37 37 37 35 36 36 34 34 34 33 30 29 29 28 29 28 29 30 30 31 29 28 28 28 29 30 30
63 55 51 59 51 49 48 49 42 39 34 35 32 27 24 16 19 23 31 35 36 40 38 38 37 36 37 34 33 34 34 34 32 32 35 35 34 32 33 34 35 33 34 34
61 65 58 54 52 51 49 48 44 40 38 40 39 33 29 23 19 23 21 14 20 35 42 42 41 39 38 37 39 38 39 39 36 37 36 37 38 38 38 39 38 37 37 37
64 61 60 41 53 52 49 47 46 40 38 44 41 44 31 31 25 21 20 23 19 19 29 38 42 43 42 43 43 44 43 43 41 41 40 40 41 40 41 42 41 41 40 40
62 58 59 60 51 49 50 47 45 47 49 45 40 45 39 27 22 22 17 20 24 25 23 31 41 45 46 47 47 48 47 46 45 45 45 44 43 44 44 45 44 44 44 42
62 60 59 57 53 52 50 45 47 49 52 54 50 48 46 31 26 25 29 29 29 26 27 21 31 39 45 51 52 51 50 49 48 48 48 48 49 48 47 48 47 47 46 44
67 67 62 61 58 55 55 53 50 49 49 49 52 53 50 37 35 32 33 31 32 35 31 32 30 30 37 45 50 52 52 52 52 52 51 52 51 51 51 51 51 49 48 47
62 64 63 60 58 54 55 52 49 49 48 47 50 47 48 42 36 38 36 33 33 30 31 33 38 39 36 40 44 53 53 54 54 53 56 56 53 52 52 53 54 51 50 50
63 63 64 63 61 60 54 52 51 50 50 50 49 49 46 46 41 39 41 42 41 44 45 41 39 37 37 37 39 42 55 56 55 57 59 59 56 55 56 57 56 54 53 51
65 64 65 64 58 55 55 56 56 55 54 53 50 47 41 40 42 41 41 43 44 45 48 50 43 37 35 33 34 33 39 55 58 60 60 60 59 57 58 60 59 57 57 56
69 66 62 60 62 60 60 58 55 53 52 52 53 48 45 43 45 46 46 45 45 45 48 50 51 50 46 43 41 39 37 44 57 57 58 60 60 60 59 59 59 59 60 60
62 67 65 64 60 62 59 59 57 56 59 57 58 38 44 46 47 48 49 46 46 47 47 47 49 51 53 53 48 43 42 44 45 57 63 61 62 63 61 61 60 61 61 61
65 65 65 61 55 54 57 59 57 52 52 51 52 40 50 47 46 48 47 49 47 48 50 49 50 51 53 51 46 43 43 44 46 51 58 65 65 66 66 64 62 63 61 60
64 62 59 60 59 56 53 49 45 47 52 54 45 49 48 50 43 48 51 50 51 46 43 46 49 50 51 51 48 45 42 43 45 49 57 66 67 64 64 62 64 65 65 63
61 63 58 51 54 58 55 53 51 57 52 53 49 52 50 47 50 43 43 46 49 48 48 51 52 52 53 53 50 49 45 43 45 46 51 63 74 66 59 60 63 64 62 62
58 55 57 63 58 54 56 51 54 54 52 52 54 41 34 47 52 53 49 49 46 47 49 51 53 51 51 50 50 50 48 47 48 49 49 53 59 59 59 60 60 61 60 58
45 46 47 49 51 56 49 47 46 49 48 49 52 51 52 53 52 53 52 50 48 50 52 50 48 48 49 52 51 51 51 50 51 52 51 51 51 56 61 62 62 62 60 58
48 47 46 47 49 46 43 42 44 52 49 51 47 42 42 46 53 49 47 47 49 49 47 50 51 45 44 48 53 53 53 50 50 52 53 53 55 56 56 54 50 47 47 50
49 51 55 53 51 46 40 48 50 52 47 49 49 42 42 45 49 43 47 49 52 52 52 48 47 50 50 48 50 54 55 54 53 53 55 55 54 54 53 53 52 51 48 51
50 49 49 51 52 47 44 45 49 47 41 36 32 30 31 35 38 44 50 50 51 53 54 52 49 48 47 49 52 55 53 52 50 51 52 55 56 57 59 59 58 58 60 60
51 52 51 48 45 45 43 43 40 38 33 33 30 35 40 41 44 46 48 50 52 49 47 50 51 52 49 45 47 55 57 56 53 47 46 49 51 54 57 58 58 58 59 60
56 55 50 49 44 45 46 40 36 36 40 36 37 38 40 43 44 43 46 51 53 55 52 46 44 51 50 45 46 52 55 58 54 50 49 47 46 47 49 50 53 56 59 61
43 44 45 45 45 47 45 40 40 40 41 38 40 39 41 45 49 45 46 51 54 56 56 49 46 47 46 45 48 50 51 51 53 52 50 51 53 53 54 56 57 59 59 59
41 43 45 46 43 42 42 40 37 39 43 42 40 38 40 46 49 47 50 50 51 53 55 52 52 50 50 49 48 48 50 52 53 54 55 55 55 55 56 54 55 56 56 58
48 44 43 44 43 42 42 43 42 45 47 50 47 45 46 44 45 47 52 51 51 54 53 53 55 53 51 52 53 53 54 56 56 54 54 55 55 56 54 53 52 52 54 55

GFSCGP_500_spd_120.txt.gz
Wind_Speed
60 58 56 52 48 45 45 41 38 38 34 32 30 27 24 26 30 40 41 37 31 25 30 26 26 24 21 19 18 19 20 21 20 21 22 24 25 25 25 26 24 23 26 26
65 62 55 50 49 42 46 44 42 42 38 34 31 25 26 25 23 29 34 35 30 27 28 27 28 26 25 24 23 22 23 23 24 24 25 27 29 29 29 28 28 30 31 30
64 62 57 53 49 47 39 38 44 44 40 37 36 32 28 22 19 23 26 27 29 30 29 29 31 29 30 27 27 28 28 29 27 28 28 30 32 32 32 33 35 35 33 33
64 63 57 53 46 40 41 46 46 46 42 40 37 38 32 28 19 14 13 12 15 20 22 27 28 32 31 32 32 33 32 33 32 32 33 32 32 33 36 38 39 39 39 38
67 64 59 57 50 50 51 52 48 46 45 42 43 41 26 32 22 14 16 18 21 20 21 25 27 30 36 38 36 37 38 36 37 36 35 35 35 36 39 40 42 42 43 42
64 61 58 55 51 45 51 47 47 46 45 48 45 43 33 30 25 25 23 20 22 22 23 23 23 23 30 34 37 39 40 41 41 42 41 41 41 41 42 44 45 45 46 46
66 63 59 59 59 49 55 51 49 49 48 50 46 49 42 30 26 20 20 24 22 17 18 21 25 25 24 26 31 37 40 44 46 46 47 46 45 47 46 48 47 47 48 49
73 69 65 61 60 62 53 47 51 56 54 50 47 50 48 30 30 27 27 27 27 28 30 29 29 29 28 25 26 26 31 37 41 48 51 49 50 51 50 50 50 51 51 51
70 70 65 64 62 61 62 63 50 48 48 49 51 48 45 36 34 32 30 32 34 34 33 31 30 29 30 27 24 28 31 33 35 39 45 51 52 53 54 53 54 53 53 53
68 69 69 69 64 63 59 57 54 53 53 50 51 51 47 43 34 33 33 33 36 37 36 36 37 37 36 36 38 39 34 33 36 36 39 45 55 55 54 56 55 56 57 56
67 67 69 70 70 64 62 62 60 55 53 53 52 51 48 43 41 35 35 36 38 38 38 39 39 40 41 43 43 43 41 37 37 33 34 34 38 53 58 56 54 58 59 58
70 70 68 67 64 64 64 59 56 54 53 52 51 47 46 45 45 45 42 41 41 42 43 44 45 45 45 46 47 47 45 45 44 42 44 43 39 41 54 60 56 59 58 58
67 69 68 70 67 66 61 59 58 56 55 54 53 52 51 51 49 47 46 44 43 45 48 49 48 48 48 48 48 49 49 50 49 49 46 41 42 44 47 56 61 60 59 60
68 68 67 62 55 55 58 61 61 61 59 59 55 46 50 48 47 46 47 47 48 47 47 49 50 51 51 52 52 53 52 52 50 48 46 45 46 48 51 57 63 62 62 64
65 64 65 65 62 56 51 48 53 57 54 56 38 48 48 49 49 49 49 46 47 47 48 48 49 50 51 51 51 51 51 51 50 48 48 49 51 53 56 59 63 64 61 57
61 66 66 63 61 61 57 54 53 49 48 50 51 47 45 45 48 43 45 49 48 51 52 52 52 51 50 48 49 50 52 52 51 51 51 52 54 54 55 55 56 61 66 67
62 65 65 65 61 60 59 55 54 49 50 45 47 34 38 43 47 51 50 50 52 51 51 49 50 48 46 47 49 50 51 53 55 54 53 55 57 58 58 56 53 52 53 50
59 65 58 53 58 61 52 52 48 50 51 51 47 43 43 44 47 49 51 49 46 45 46 47 47 47 48 49 51 50 51 52 52 54 56 56 58 59 61 60 56 53 52 49
61 62 67 65 59 53 53 48 48 50 46 45 46 48 48 48 51 52 49 50 52 53 52 50 48 48 49 50 50 50 51 54 56 56 53 54 56 57 59 62 59 55 52 50
47 49 48 46 49 51 43 43 43 39 44 48 52 46 43 45 51 44 45 46 49 49 49 50 50 49 49 50 51 51 51 55 57 55 53 51 52 53 54 55 59 60 58 58
46 46 46 45 44 43 42 39 41 45 39 44 45 46 47 48 45 45 46 47 47 48 47 47 47 47 47 47 47 46 49 52 56 59 56 52 50 49 50 50 51 53 55 55
46 47 46 47 46 47 46 48 48 44 41 40 39 35 41 46 46 46 44 44 42 41 38 39 41 43 43 44 45 46 45 50 55 60 62 60 56 51 50 50 49 49 51 52
50 48 50 53 49 46 40 38 38 40 41 41 42 39 36 36 39 39 42 43 42 37 36 38 39 40 42 46 48 49 46 44 46 55 61 54 54 53 46 47 49 49 50 51
51 50 52 50 47 41 43 43 40 37 39 42 41 42 40 36 38 39 38 38 38 39 40 40 43 42 43 46 46 46 43 42 44 48 50 53 54 53 49 50 52 53 54 54
45 44 45 44 41 44 47 47 44 43 41 42 41 45 45 42 41 41 40 38 38 39 42 44 47 45 45 47 47 47 48 48 50 53 55 55 56 56 56 54 52 50 51 53
46 44 44 45 43 43 44 46 47 47 45 45 45 47 44 42 40 40 38 37 37 41 46 49 48 48 47 47 48 47 49 50 50 53 53 53 52 51 50 49 49 51 52 52

GFSCGP_500_spd_123.txt.gz
Wind_Speed
68 64 63 56 51 46 43 40 37 32 31 30 24 25 29 33 25 27 32 33 31 27 25 19 19 19 16 13 15 14 15 16 14 15 16 18 21 21 22 23 23 24 26 27
71 69 61 56 49 48 44 42 42 37 36 34 33 29 31 28 22 24 25 30 33 32 28 23 20 20 21 18 17 17 17 18 18 19 21 21 23 23 23 24 25 29 32 31
71 69 65 58 53 50 49 45 40 41 39 36 35 35 35 29 25 22 18 22 27 30 28 26 22 20 22 20 21 20 22 23 22 22 23 23 23 24 26 29 31 32 32 34
70 70 64 60 55 51 49 39 38 38 42 41 40 38 33 29 26 20 17 17 21 27 28 29 28 26 23 25 27 25 26 28 27 27 25 24 26 28 29 31 33 35 36 37
74 72 67 64 57 53 48 46 39 39 40 43 43 44 35 35 28 21 21 17 18 20 20 20 21 22 28 30 31 31 30 30 30 31 30 30 29 30 34 36 38 38 39 39
68 67 64 63 58 54 51 44 43 48 48 45 42 43 38 36 26 26 24 18 17 17 17 19 18 17 16 17 20 31 32 32 32 36 35 35 36 37 37 39 41 42 43 43
71 69 66 63 59 54 53 45 44 42 46 53 45 45 45 34 30 26 28 27 25 24 21 20 19 15 16 16 15 16 19 23 28 32 35 37 40 42 42 43 44 45 46 46
73 74 69 66 64 57 54 55 54 54 50 51 51 48 48 32 33 28 29 29 25 20 22 19 18 19 19 19 19 19 20 19 21 23 25 29 34 39 45 48 48 49 48 49
74 68 71 69 64 63 61 55 51 51 51 50 52 52 51 33 33 34 31 30 28 25 24 25 28 28 27 24 21 21 22 22 21 23 26 28 30 32 35 41 48 51 51 50
73 67 67 69 66 66 62 57 53 54 56 59 57 54 49 39 31 32 34 34 34 32 30 31 32 33 33 29 28 30 31 32 34 36 37 37 36 35 35 36 38 47 52 52
67 71 71 72 73 70 66 67 67 62 59 53 48 42 35 35 32 33 34 35 35 36 36 36 36 35 36 35 34 35 36 38 39 40 41 40 39 37 35 34 36 40 47 52
63 57 65 64 65 68 66 66 65 64 61 62 59 55 51 46 43 39 39 38 40 39 38 38 38 37 38 39 40 40 40 41 41 41 42 42 42 43 45 48 49 47 49 52
71 70 68 66 62 62 68 66 62 61 59 58 54 52 50 49 46 46 43 41 41 40 41 42 43 43 44 44 44 44 45 46 46 46 45 45 45 47 47 47 48 50 53 55
74 74 71 66 61 57 54 59 65 65 64 59 58 52 54 54 53 49 47 45 44 45 45 45 46 46 46 46 47 48 49 50 51 50 50 51 52 51 50 49 51 52 54 57
71 72 69 66 65 62 56 59 64 64 60 60 52 52 51 49 52 54 54 54 52 49 47 45 46 46 47 46 45 47 49 50 52 54 56 57 56 55 53 52 52 55 57 58
63 71 67 65 67 67 64 58 51 55 61 60 58 57 54 55 58 57 53 51 47 46 44 44 45 44 44 45 48 49 51 51 51 52 51 51 52 53 56 56 56 57 58 58
54 60 63 66 64 63 67 62 57 52 50 50 53 41 48 49 51 49 47 45 45 46 46 46 46 48 49 51 51 53 53 51 50 48 48 48 48 48 49 51 51 53 55 57
64 59 63 67 68 66 59 58 52 53 52 48 45 43 42 38 38 42 49 49 47 48 49 51 52 53 52 50 49 47 47 48 48 49 48 49 48 49 51 53 54 53 54 54
61 59 67 65 59 59 57 53 53 53 49 45 43 45 43 43 45 47 47 42 44 47 49 53 54 52 51 50 48 48 48 48 47 47 49 48 48 51 53 56 56 56 55 50
57 56 58 61 59 59 49 51 48 47 50 44 43 43 43 43 49 41 41 44 46 48 53 53 50 48 47 45 45 46 46 45 44 45 45 46 46 48 51 53 56 58 56 54
55 56 57 56 51 46 48 46 42 46 39 41 41 43 43 48 45 41 43 47 50 50 49 49 49 48 46 46 45 41 40 41 41 41 42 43 45 48 51 53 56 58 60 57
50 52 52 54 45 41 43 54 47 43 36 40 44 43 41 41 42 46 49 52 53 53 53 52 50 50 47 41 37 36 36 34 34 36 38 39 40 44 49 51 51 53 56 57
50 45 41 40 33 35 38 39 43 42 39 37 41 42 43 44 45 46 47 49 49 48 50 49 51 44 43 41 40 38 35 35 36 37 38 37 39 42 44 45 47 48 47 48
51 43 39 37 34 36 37 37 37 38 39 41 44 46 44 44 46 48 49 48 48 46 45 46 46 45 45 45 42 38 37 38 40 39 38 36 38 41 44 45 48 50 50 50
49 44 40 39 42 45 45 45 41 41 41 41 43 45 44 44 44 45 44 44 44 46 47 47 46 46 44 43 42 39 40 40 38 39 39 38 41 43 43 44 46 47 49 49
45 40 43 43 43 45 42 39 39 40 41 44 49 48 48 48 48 48 49 50 49 49 50 49 47 46 45 44 42 41 41 42 42 42 43 44 44 44 45 45 44 44 45 46

GFSCGP_500_spd_126.txt.gz
Wind_Speed
67 64 68 59 54 50 48 47 42 34 35 40 33 34 37 41 37 36 31 33 29 26 29 24 20 18 16 16 15 15 14 14 13 13 16 15 19 19 20 21 21 21 24 26
67 69 62 56 55 52 49 46 43 41 41 40 38 32 35 38 32 31 32 31 30 30 32 28 25 20 19 20 18 17 16 15 16 17 18 19 19 18 18 19 23 25 26 27
66 66 64 59 58 56 53 48 44 45 45 41 37 35 35 28 26 29 27 26 25 28 34 34 29 24 24 21 22 22 21 20 19 21 20 19 18 20 20 23 26 28 29 30
59 68 65 62 60 59 56 48 46 48 46 47 39 39 36 32 27 26 24 23 23 24 30 38 37 33 28 25 27 24 25 25 23 24 22 22 22 21 25 26 27 29 31 32
58 66 65 64 58 61 57 46 46 46 46 46 46 47 37 37 31 27 27 24 23 17 22 27 31 31 31 30 29 29 29 29 29 28 27 27 26 27 29 30 31 34 37 37
62 69 67 64 58 58 57 49 50 49 47 51 46 47 42 41 27 32 27 25 24 17 15 21 25 25 23 24 24 27 31 33 33 30 29 29 30 31 32 33 36 38 40 41
62 66 65 66 62 63 63 58 56 51 48 50 43 47 48 41 35 34 29 26 24 23 20 18 18 19 20 18 18 19 18 19 22 21 22 25 27 27 29 33 37 41 44 45
76 76 76 74 69 62 62 61 62 58 55 54 52 52 48 36 34 35 33 30 27 28 26 23 22 20 18 15 13 12 13 16 16 18 19 20 21 24 27 30 34 37 41 46
71 72 67 70 67 65 66 65 57 56 52 52 58 53 53 44 40 36 33 33 30 29 30 26 22 21 23 20 19 20 19 19 21 20 23 24 25 27 30 33 35 38 42 45
71 67 66 65 66 68 67 64 63 62 61 60 60 58 56 41 36 36 35 34 34 32 31 29 26 25 26 26 28 28 28 27 27 28 29 31 34 35 35 36 38 40 43 45
76 67 71 76 74 72 68 67 65 59 62 60 60 58 50 45 37 37 38 35 34 34 33 33 33 33 33 31 30 31 31 32 33 34 37 37 36 36 37 37 37 40 43 44
71 65 66 71 73 71 68 68 67 67 61 59 60 63 62 51 40 30 37 39 36 34 35 36 36 36 35 36 35 36 37 38 39 41 42 41 42 43 43 43 44 45 47 51
71 73 73 73 76 74 70 65 66 63 63 62 60 57 51 45 41 34 37 39 39 39 39 40 41 40 41 41 41 41 42 43 43 45 45 45 46 47 47 49 51 51 52 54
72 73 71 66 53 61 69 59 55 64 66 60 60 59 59 57 54 51 48 44 42 42 42 43 43 44 45 46 46 47 46 48 48 48 49 51 50 50 51 52 53 53 50 48
70 67 67 63 69 66 64 67 62 66 62 67 55 60 57 55 54 52 51 48 45 44 44 46 47 48 50 50 50 51 51 51 51 51 51 51 52 54 54 54 53 53 53 53
68 59 59 61 65 63 65 62 69 63 62 61 60 59 56 55 56 58 57 55 52 48 47 49 50 52 53 53 53 52 51 51 51 50 51 53 53 53 50 50 50 52 54 54
70 67 64 64 69 70 73 67 63 58 54 51 58 49 58 59 61 61 58 54 49 50 50 53 52 48 47 46 45 46 47 48 50 51 51 50 48 47 48 51 52 53 53 53
64 63 63 66 69 76 63 68 65 64 60 56 51 52 53 54 56 57 58 59 56 52 50 47 44 42 41 42 44 45 47 49 49 49 49 50 50 52 53 53 53 53 54 54
68 62 65 64 65 69 68 65 61 63 55 58 56 53 48 46 51 58 56 53 50 48 46 44 44 44 46 46 46 48 49 49 50 50 50 49 50 51 50 49 48 47 47 48
70 65 58 56 54 54 57 59 52 54 59 51 50 49 50 51 48 44 44 45 41 38 40 44 45 45 46 48 50 50 51 51 49 48 48 48 49 47 44 43 43 45 47 48
72 73 69 68 64 60 46 48 53 59 39 38 50 47 44 46 42 38 41 41 43 45 46 47 49 47 47 47 47 49 50 48 47 48 49 47 43 41 41 42 42 42 42 44
69 67 64 62 61 55 44 49 55 45 39 41 37 39 43 41 40 39 41 42 43 45 45 44 45 46 49 51 53 54 54 53 52 48 46 44 42 41 41 41 42 37 37 37
59 55 51 55 47 43 42 41 38 40 35 39 35 36 39 40 44 43 42 39 40 42 46 49 53 52 52 54 54 55 56 55 50 47 44 45 45 43 41 40 40 38 37 34
48 48 50 48 39 39 38 32 30 35 38 41 46 45 40 36 37 38 40 45 47 48 50 52 50 49 50 51 53 55 56 54 50 49 46 46 46 43 42 40 38 38 36 39
47 45 42 41 40 38 39 38 40 32 35 35 37 43 42 45 43 43 46 48 50 51 50 46 47 47 48 49 52 54 52 51 51 50 50 48 46 44 43 41 41 40 39 39
49 55 48 44 41 36 36 36 35 42 34 35 36 40 45 45 46 48 50 50 48 46 47 49 49 48 50 51 52 52 51 51 51 51 50 49 50 49 46 43 44 45 43 42

GFSCGP_500_spd_129.txt.gz
Wind_Speed
60 67 64 63 58 54 54 49 40 34 36 39 40 33 37 43 40 36 36 33 27 24 32 29 24 24 22 21 19 19 19 18 16 17 18 19 19 18 18 18 17 18 21 23
65 64 58 59 60 55 53 48 42 37 40 44 41 32 35 43 40 34 35 33 28 31 35 31 28 26 24 24 23 21 20 19 20 20 21 19 18 16 16 17 18 22 23 22
57 54 56 63 62 57 55 51 44 41 42 47 44 38 38 39 36 35 38 35 33 31 34 32 33 32 30 25 25 27 27 24 24 23 22 20 19 18 19 20 22 23 22 24
47 48 57 61 64 58 56 53 47 44 46 50 47 47 39 38 35 33 34 33 31 30 31 33 34 36 34 29 34 30 30 28 27 27 24 23 23 22 24 24 24 26 27 29
53 54 52 52 55 56 55 53 46 46 48 51 49 54 39 40 36 28 25 26 25 24 25 25 28 29 38 40 37 33 31 30 30 29 28 28 26 27 29 28 28 29 33 34
57 54 53 50 51 55 54 52 49 48 51 60 52 52 47 42 32 30 31 30 27 26 23 22 20 25 37 43 36 33 30 31 31 32 32 31 30 31 32 32 32 34 36 37
61 58 55 48 55 58 56 53 56 57 61 60 55 55 54 41 39 35 34 31 29 27 23 23 18 19 21 27 29 31 31 31 33 33 30 28 30 30 30 30 31 32 35 37
68 68 68 53 52 56 60 60 61 63 61 62 62 61 62 42 40 40 38 35 31 28 23 22 22 19 19 19 21 21 21 21 20 18 16 15 17 19 22 24 28 30 33 36
71 74 69 66 57 54 56 65 56 59 59 62 64 56 60 43 38 38 37 37 33 30 27 25 27 24 23 20 22 21 20 20 17 17 21 21 23 24 27 29 29 32 36 39
79 73 67 65 67 62 61 59 65 63 64 62 63 62 60 45 39 37 38 35 33 33 32 28 29 28 26 24 26 27 26 25 24 26 28 29 28 30 32 36 37 39 39 41
74 77 73 70 69 62 60 66 64 62 64 61 61 66 58 48 41 42 39 38 41 38 35 32 31 29 30 28 28 29 29 29 30 32 33 33 35 38 40 41 42 43 43 44
66 81 85 80 74 70 66 65 66 68 68 64 63 67 61 54 43 40 41 42 36 36 34 34 33 31 33 32 33 33 33 34 36 36 36 38 41 42 44 44 44 45 45 46
82 91 86 83 83 77 70 68 68 71 70 69 63 63 56 54 48 44 45 39 39 37 38 34 32 33 34 36 36 36 37 38 38 40 42 44 46 47 47 48 49 50 50 50
66 79 86 83 71 67 66 62 57 61 71 64 64 57 53 54 52 47 46 50 45 39 36 37 37 37 38 39 40 41 41 43 45 46 47 48 49 49 49 49 51 50 50 51
60 75 72 77 77 73 62 63 63 71 67 69 56 61 55 53 52 52 47 40 37 39 42 47 45 44 44 44 44 45 47 49 51 51 52 51 51 50 50 50 52 52 54 52
62 70 73 65 72 72 73 69 63 60 62 71 60 60 55 55 57 55 53 54 53 52 49 47 46 45 47 48 49 51 52 54 55 55 54 52 50 50 51 51 52 54 51 51
81 80 76 74 67 71 74 70 67 60 59 63 64 38 45 52 55 56 55 56 54 50 49 49 50 52 53 53 54 55 56 56 55 52 50 49 48 50 50 52 51 52 52 53
76 75 78 77 72 81 65 58 54 60 61 60 59 60 54 53 54 56 58 57 58 56 54 54 53 53 52 53 55 55 55 51 47 47 46 47 48 48 49 50 52 52 53 55
59 75 74 84 85 74 61 43 49 56 49 53 57 59 62 62 62 63 63 64 60 58 57 58 56 54 54 52 48 45 44 45 44 45 46 44 46 48 52 55 53 52 54 56
55 61 67 74 87 74 47 52 54 59 61 53 50 48 49 54 58 53 52 57 60 59 58 54 52 51 48 46 46 46 44 42 42 41 41 43 44 47 49 51 53 55 56 51
57 71 76 72 68 62 60 61 58 62 44 43 49 51 56 63 61 52 47 48 45 43 43 42 44 43 40 40 40 40 40 40 41 43 45 47 48 50 52 54 56 54 51 51
65 74 79 76 78 68 58 57 57 45 38 43 36 42 41 46 49 48 46 45 48 47 45 45 44 43 43 43 40 38 39 44 45 47 50 50 51 52 55 54 54 53 51 49
60 65 62 69 57 56 56 53 50 43 43 47 45 44 43 40 44 52 47 45 49 48 47 47 45 44 41 39 40 41 42 44 47 50 52 53 54 57 55 52 52 49 50 54
58 59 56 56 55 54 55 55 50 48 41 43 42 42 46 42 41 43 51 48 47 44 44 45 42 40 41 42 41 41 44 49 51 51 52 53 55 56 54 51 51 51 54 52
52 54 55 57 55 54 55 50 45 44 42 44 46 38 37 41 48 46 43 44 48 51 49 45 44 44 42 41 41 44 46 46 47 49 51 52 54 54 53 53 52 54 54 55
53 50 49 46 48 54 55 51 45 40 40 44 40 39 41 40 46 43 38 38 39 41 44 45 45 44 45 45 44 45 45 45 48 50 51 52 52 53 54 55 55 55 55 55